Time,TemperatureF,DewpointF,PressureIn,WindDirection,WindDirectionDegrees,WindSpeedMPH,WindSpeedGustMPH,Humidity,HourlyPrecipIn,Conditions,Clouds,dailyrainin,SoftwareType,DateUTC
2013-06-28 00:00:00,68.1,64.7,29.63,WSW,255,0.0,0.0,89,0.00,,,0.00,Wunderground v.1.15,2013-06-28 04:00:00,
2013-06-28 00:01:00,68.1,64.7,29.63,SW,223,0.0,1.0,89,0.00,,,0.00,Wunderground v.1.15,2013-06-28 04:01:00,
2013-06-28 00:02:00,68.1,64.7,29.63,WSW,253,0.0,1.0,89,0.00,,,0.00,Wunderground v.1.15,2013-06-28 04:02:00,
2013-06-28 00:05:00,68.0,64.6,29.63,WNW,295,0.0,1.0,89,0.00,,,0.00,Wunderground v.1.15,2013-06-28 04:05:00,
2013-06-28 00:06:00,68.0,64.6,29.63,West,262,0.0,1.0,89,0.00,,,0.00,Wunderground v.1.15,2013-06-28 04:06:00,
2013-06-28 00:08:00,68.0,65.0,29.63,West,261,0.0,1.0,90,0.00,,,0.00,Wunderground v.1.15,2013-06-28 04:08:00,
2013-06-28 00:10:00,67.9,64.9,29.63,West,277,0.0,1.0,90,0.00,,,0.00,Wunderground v.1.15,2013-06-28 04:10:00,
2013-06-28 00:13:00,67.9,64.9,29.63,West,263,0.0,1.0,90,0.00,,,0.00,Wunderground v.1.15,2013-06-28 04:13:00,
2013-06-28 00:15:00,67.8,64.8,29.62,WSW,255,0.0,1.0,90,0.00,,,0.00,Wunderground v.1.15,2013-06-28 04:15:00,
2013-06-28 00:17:00,67.8,64.8,29.62,WSW,256,0.0,1.0,90,0.00,,,0.00,Wunderground v.1.15,2013-06-28 04:17:00,
2013-06-28 00:18:00,67.7,64.7,29.62,WSW,256,0.0,1.0,90,0.00,,,0.00,Wunderground v.1.15,2013-06-28 04:18:00,
2013-06-28 00:21:00,67.7,64.7,29.62,West,277,0.0,1.0,90,0.00,,,0.00,Wunderground v.1.15,2013-06-28 04:21:00,
2013-06-28 00:22:00,67.7,64.7,29.62,West,277,0.0,1.0,90,0.00,,,0.00,Wunderground v.1.15,2013-06-28 04:22:00,
2013-06-28 00:26:00,67.7,64.7,29.62,West,274,0.0,1.0,90,0.00,,,0.00,Wunderground v.1.15,2013-06-28 04:26:00,
2013-06-28 00:27:00,67.7,64.7,29.62,WSW,248,0.0,1.0,90,0.00,,,0.00,Wunderground v.1.15,2013-06-28 04:27:00,
2013-06-28 00:29:00,67.7,64.7,29.62,WSW,248,0.0,1.0,90,0.00,,,0.00,Wunderground v.1.15,2013-06-28 04:29:00,
2013-06-28 00:31:00,67.7,64.7,29.63,WSW,248,0.0,0.0,90,0.00,,,0.00,Wunderground v.1.15,2013-06-28 04:31:00,
2013-06-28 00:33:00,67.7,64.7,29.63,West,262,0.0,1.0,90,0.00,,,0.00,Wunderground v.1.15,2013-06-28 04:33:00,
2013-06-28 00:35:00,67.7,64.7,29.63,West,270,0.0,1.0,90,0.00,,,0.00,Wunderground v.1.15,2013-06-28 04:35:00,
2013-06-28 00:37:00,67.7,65.0,29.63,West,266,0.0,1.0,91,0.00,,,0.00,Wunderground v.1.15,2013-06-28 04:37:00,
2013-06-28 00:39:00,67.7,65.0,29.63,West,266,0.0,1.0,91,0.00,,,0.00,Wunderground v.1.15,2013-06-28 04:39:00,
2013-06-28 00:40:00,67.6,64.9,29.63,West,266,0.0,0.0,91,0.00,,,0.00,Wunderground v.1.15,2013-06-28 04:40:00,
2013-06-28 00:44:00,67.6,64.9,29.63,West,266,0.0,0.0,91,0.00,,,0.00,Wunderground v.1.15,2013-06-28 04:44:00,
2013-06-28 00:46:00,67.5,64.8,29.63,West,266,0.0,0.0,91,0.00,,,0.00,Wunderground v.1.15,2013-06-28 04:46:00,
2013-06-28 00:47:00,67.5,64.8,29.63,SSW,210,0.0,0.0,91,0.00,,,0.00,Wunderground v.1.15,2013-06-28 04:47:00,
2013-06-28 00:48:00,67.4,64.7,29.62,SW,219,0.0,0.0,91,0.00,,,0.00,Wunderground v.1.15,2013-06-28 04:48:00,
2013-06-28 00:49:00,67.4,64.7,29.62,SW,220,0.0,0.0,91,0.00,,,0.00,Wunderground v.1.15,2013-06-28 04:49:00,
2013-06-28 00:51:00,67.3,64.9,29.62,SW,219,0.0,0.0,92,0.00,,,0.01,Wunderground v.1.15,2013-06-28 04:51:00,
2013-06-28 00:52:00,67.3,64.9,29.62,SW,219,0.0,0.0,92,0.00,,,0.01,Wunderground v.1.15,2013-06-28 04:52:00,
2013-06-28 00:53:00,67.3,64.9,29.62,SW,219,0.0,0.0,92,0.00,,,0.01,Wunderground v.1.15,2013-06-28 04:53:00,
2013-06-28 00:56:00,67.2,64.8,29.62,SW,220,0.0,1.0,92,0.00,,,0.01,Wunderground v.1.15,2013-06-28 04:56:00,
2013-06-28 00:59:00,67.2,65.1,29.62,SW,221,0.0,1.0,93,0.00,,,0.01,Wunderground v.1.15,2013-06-28 04:59:00,
2013-06-28 01:01:00,67.1,65.0,29.62,SW,221,0.0,0.0,93,0.00,,,0.01,Wunderground v.1.15,2013-06-28 05:01:00,
2013-06-28 01:02:00,67.1,65.0,29.62,SW,221,0.0,0.0,93,0.00,,,0.01,Wunderground v.1.15,2013-06-28 05:02:00,
2013-06-28 01:05:00,66.9,64.8,29.62,West,281,0.0,0.0,93,0.00,,,0.01,Wunderground v.1.15,2013-06-28 05:05:00,
2013-06-28 01:06:00,66.9,64.8,29.62,West,281,0.0,0.0,93,0.00,,,0.01,Wunderground v.1.15,2013-06-28 05:06:00,
2013-06-28 01:07:00,66.9,64.8,29.62,West,281,0.0,0.0,93,0.00,,,0.01,Wunderground v.1.15,2013-06-28 05:07:00,
2013-06-28 01:09:00,66.8,64.7,29.61,WSW,256,0.0,0.0,93,0.00,,,0.01,Wunderground v.1.15,2013-06-28 05:09:00,
2013-06-28 01:10:00,66.8,64.7,29.61,WSW,256,0.0,0.0,93,0.00,,,0.01,Wunderground v.1.15,2013-06-28 05:10:00,
2013-06-28 01:11:00,66.7,64.6,29.62,WSW,256,0.0,0.0,93,0.00,,,0.01,Wunderground v.1.15,2013-06-28 05:11:00,
2013-06-28 01:13:00,66.7,64.6,29.61,WSW,256,0.0,0.0,93,0.00,,,0.01,Wunderground v.1.15,2013-06-28 05:13:00,
2013-06-28 01:17:00,66.5,64.7,29.61,West,263,0.0,2.0,94,0.00,,,0.01,Wunderground v.1.15,2013-06-28 05:17:00,
2013-06-28 01:18:00,66.5,64.7,29.61,West,263,0.0,2.0,94,0.00,,,0.01,Wunderground v.1.15,2013-06-28 05:18:00,
2013-06-28 01:19:00,66.5,64.7,29.61,West,263,0.0,2.0,94,0.00,,,0.01,Wunderground v.1.15,2013-06-28 05:19:00,
2013-06-28 01:20:00,66.5,64.7,29.61,West,281,0.0,1.0,94,0.00,,,0.01,Wunderground v.1.15,2013-06-28 05:20:00,
2013-06-28 01:22:00,66.5,64.7,29.61,West,281,0.0,1.0,94,0.00,,,0.01,Wunderground v.1.15,2013-06-28 05:22:00,
2013-06-28 01:26:00,66.4,64.6,29.61,West,260,0.0,1.0,94,0.00,,,0.01,Wunderground v.1.15,2013-06-28 05:26:00,
2013-06-28 01:27:00,66.4,64.6,29.61,West,259,0.0,1.0,94,0.00,,,0.01,Wunderground v.1.15,2013-06-28 05:27:00,
2013-06-28 01:28:00,66.4,64.6,29.61,West,260,0.0,1.0,94,0.00,,,0.01,Wunderground v.1.15,2013-06-28 05:28:00,
2013-06-28 01:33:00,66.3,64.5,29.61,West,263,0.0,1.0,94,0.00,,,0.01,Wunderground v.1.15,2013-06-28 05:33:00,
2013-06-28 01:34:00,66.4,64.6,29.61,West,263,0.0,1.0,94,0.00,,,0.01,Wunderground v.1.15,2013-06-28 05:34:00,
2013-06-28 01:35:00,66.3,64.8,29.61,West,263,0.0,1.0,95,0.00,,,0.01,Wunderground v.1.15,2013-06-28 05:35:00,
2013-06-28 01:36:00,66.3,64.8,29.61,West,263,0.0,1.0,95,0.00,,,0.01,Wunderground v.1.15,2013-06-28 05:36:00,
2013-06-28 01:37:00,66.3,64.8,29.61,West,263,0.0,1.0,95,0.00,,,0.01,Wunderground v.1.15,2013-06-28 05:37:00,
2013-06-28 01:39:00,66.3,64.5,29.61,West,263,0.0,1.0,94,0.00,,,0.01,Wunderground v.1.15,2013-06-28 05:39:00,
2013-06-28 01:42:00,66.3,64.8,29.61,West,263,0.0,0.0,95,0.00,,,0.01,Wunderground v.1.15,2013-06-28 05:42:00,
2013-06-28 01:44:00,66.2,64.7,29.61,West,262,0.0,0.0,95,0.00,,,0.01,Wunderground v.1.15,2013-06-28 05:44:00,
2013-06-28 01:45:00,66.2,64.7,29.61,West,263,0.0,0.0,95,0.00,,,0.01,Wunderground v.1.15,2013-06-28 05:45:00,
2013-06-28 01:50:00,66.2,64.7,29.61,West,274,0.0,0.0,95,0.00,,,0.01,Wunderground v.1.15,2013-06-28 05:50:00,
2013-06-28 01:51:00,66.2,64.7,29.61,West,274,0.0,0.0,95,0.00,,,0.01,Wunderground v.1.15,2013-06-28 05:51:00,
2013-06-28 01:55:00,66.2,64.7,29.61,West,274,0.0,0.0,95,0.00,,,0.01,Wunderground v.1.15,2013-06-28 05:55:00,
2013-06-28 01:56:00,66.3,64.8,29.61,West,274,0.0,0.0,95,0.00,,,0.01,Wunderground v.1.15,2013-06-28 05:56:00,
2013-06-28 01:57:00,66.3,64.8,29.61,West,274,0.0,0.0,95,0.00,,,0.01,Wunderground v.1.15,2013-06-28 05:57:00,
2013-06-28 01:58:00,66.2,64.7,29.61,West,274,0.0,0.0,95,0.00,,,0.01,Wunderground v.1.15,2013-06-28 05:58:00,
2013-06-28 01:59:00,66.2,64.7,29.61,West,274,0.0,0.0,95,0.00,,,0.01,Wunderground v.1.15,2013-06-28 05:59:00,
2013-06-28 02:03:00,66.2,64.7,29.61,West,274,0.0,0.0,95,0.00,,,0.01,Wunderground v.1.15,2013-06-28 06:03:00,
2013-06-28 02:04:00,66.2,64.7,29.61,West,274,0.0,0.0,95,0.00,,,0.01,Wunderground v.1.15,2013-06-28 06:04:00,
2013-06-28 02:06:00,66.2,64.7,29.61,West,274,0.0,0.0,95,0.00,,,0.01,Wunderground v.1.15,2013-06-28 06:06:00,
2013-06-28 02:10:00,66.2,64.7,29.60,West,274,0.0,0.0,95,0.00,,,0.01,Wunderground v.1.15,2013-06-28 06:10:00,
2013-06-28 02:13:00,66.2,64.7,29.60,West,274,0.0,0.0,95,0.00,,,0.01,Wunderground v.1.15,2013-06-28 06:13:00,
2013-06-28 02:14:00,66.1,64.6,29.60,West,274,0.0,0.0,95,0.00,,,0.01,Wunderground v.1.15,2013-06-28 06:14:00,
2013-06-28 02:19:00,66.1,64.6,29.60,West,274,0.0,0.0,95,0.00,,,0.01,Wunderground v.1.15,2013-06-28 06:19:00,
2013-06-28 02:20:00,66.1,64.6,29.60,West,274,0.0,0.0,95,0.00,,,0.01,Wunderground v.1.15,2013-06-28 06:20:00,
2013-06-28 02:21:00,66.1,64.6,29.60,West,274,0.0,0.0,95,0.00,,,0.01,Wunderground v.1.15,2013-06-28 06:21:00,
2013-06-28 02:22:00,66.0,64.5,29.60,West,274,0.0,0.0,95,0.00,,,0.01,Wunderground v.1.15,2013-06-28 06:22:00,
2013-06-28 02:25:00,66.0,64.5,29.60,West,274,0.0,0.0,95,0.00,,,0.01,Wunderground v.1.15,2013-06-28 06:25:00,
2013-06-28 02:26:00,66.0,64.5,29.60,West,274,0.0,0.0,95,0.00,,,0.01,Wunderground v.1.15,2013-06-28 06:26:00,
2013-06-28 02:27:00,66.0,64.5,29.60,West,274,0.0,0.0,95,0.00,,,0.01,Wunderground v.1.15,2013-06-28 06:27:00,
2013-06-28 02:31:00,66.0,64.5,29.60,West,274,0.0,0.0,95,0.00,,,0.01,Wunderground v.1.15,2013-06-28 06:31:00,
2013-06-28 02:33:00,66.0,64.5,29.59,WSW,238,0.0,2.0,95,0.00,,,0.01,Wunderground v.1.15,2013-06-28 06:33:00,
2013-06-28 02:34:00,66.0,64.5,29.60,West,267,0.0,2.0,95,0.00,,,0.01,Wunderground v.1.15,2013-06-28 06:34:00,
2013-06-28 02:36:00,66.0,64.8,29.60,WSW,249,0.0,2.0,96,0.00,,,0.01,Wunderground v.1.15,2013-06-28 06:36:00,
2013-06-28 02:38:00,66.0,64.8,29.59,WSW,250,0.0,2.0,96,0.00,,,0.01,Wunderground v.1.15,2013-06-28 06:38:00,
2013-06-28 02:40:00,65.9,64.7,29.59,WSW,250,0.0,0.0,96,0.00,,,0.01,Wunderground v.1.15,2013-06-28 06:40:00,
2013-06-28 02:42:00,65.9,64.7,29.59,WSW,250,0.0,0.0,96,0.00,,,0.01,Wunderground v.1.15,2013-06-28 06:42:00,
2013-06-28 02:45:00,65.9,64.7,29.59,WSW,243,0.0,1.0,96,0.00,,,0.01,Wunderground v.1.15,2013-06-28 06:45:00,
2013-06-28 02:46:00,65.9,64.7,29.59,WSW,243,0.0,1.0,96,0.00,,,0.01,Wunderground v.1.15,2013-06-28 06:46:00,
2013-06-28 02:47:00,65.9,64.7,29.59,WSW,244,0.0,1.0,96,0.00,,,0.01,Wunderground v.1.15,2013-06-28 06:47:00,
2013-06-28 02:49:00,65.9,64.7,29.59,SW,234,0.0,1.0,96,0.00,,,0.01,Wunderground v.1.15,2013-06-28 06:49:00,
2013-06-28 02:54:00,65.8,64.6,29.59,WSW,256,0.0,0.0,96,0.00,,,0.01,Wunderground v.1.15,2013-06-28 06:54:00,
2013-06-28 02:55:00,65.8,64.6,29.58,WSW,256,0.0,0.0,96,0.00,,,0.01,Wunderground v.1.15,2013-06-28 06:55:00,
2013-06-28 02:56:00,65.8,64.6,29.58,WSW,256,0.0,0.0,96,0.00,,,0.01,Wunderground v.1.15,2013-06-28 06:56:00,
2013-06-28 02:57:00,65.8,64.6,29.59,WSW,256,0.0,0.0,96,0.00,,,0.01,Wunderground v.1.15,2013-06-28 06:57:00,
2013-06-28 02:58:00,65.8,64.6,29.58,WSW,246,0.0,2.0,96,0.00,,,0.01,Wunderground v.1.15,2013-06-28 06:58:00,
2013-06-28 03:01:00,65.7,64.5,29.58,SW,231,0.0,0.0,96,0.00,,,0.01,Wunderground v.1.15,2013-06-28 07:01:00,
2013-06-28 03:03:00,65.7,64.5,29.58,SW,231,0.0,0.0,96,0.00,,,0.01,Wunderground v.1.15,2013-06-28 07:03:00,
2013-06-28 03:04:00,65.7,64.5,29.58,SW,231,0.0,0.0,96,0.00,,,0.01,Wunderground v.1.15,2013-06-28 07:04:00,
2013-06-28 03:06:00,65.7,64.5,29.58,SW,231,0.0,0.0,96,0.00,,,0.01,Wunderground v.1.15,2013-06-28 07:06:00,
2013-06-28 03:07:00,65.7,64.5,29.58,SW,231,0.0,0.0,96,0.00,,,0.01,Wunderground v.1.15,2013-06-28 07:07:00,
2013-06-28 03:08:00,65.7,64.5,29.58,West,264,0.0,0.0,96,0.00,,,0.01,Wunderground v.1.15,2013-06-28 07:08:00,
2013-06-28 03:10:00,65.7,64.5,29.58,West,264,0.0,0.0,96,0.00,,,0.01,Wunderground v.1.15,2013-06-28 07:10:00,
2013-06-28 03:12:00,65.7,64.5,29.57,West,264,0.0,0.0,96,0.00,,,0.01,Wunderground v.1.15,2013-06-28 07:12:00,
2013-06-28 03:14:00,65.7,64.5,29.57,West,263,0.0,0.0,96,0.00,,,0.01,Wunderground v.1.15,2013-06-28 07:14:00,
2013-06-28 03:16:00,65.7,64.5,29.57,West,263,0.0,0.0,96,0.00,,,0.01,Wunderground v.1.15,2013-06-28 07:16:00,
2013-06-28 03:18:00,65.7,64.5,29.57,West,263,0.0,0.0,96,0.00,,,0.01,Wunderground v.1.15,2013-06-28 07:18:00,
2013-06-28 03:19:00,65.7,64.5,29.57,West,262,0.0,0.0,96,0.00,,,0.01,Wunderground v.1.15,2013-06-28 07:19:00,
2013-06-28 03:20:00,65.6,64.4,29.57,NW,314,0.0,1.0,96,0.00,,,0.01,Wunderground v.1.15,2013-06-28 07:20:00,
2013-06-28 03:21:00,65.7,64.5,29.57,West,262,0.0,1.0,96,0.00,,,0.01,Wunderground v.1.15,2013-06-28 07:21:00,
2013-06-28 03:24:00,65.7,64.5,29.57,West,262,0.0,1.0,96,0.00,,,0.01,Wunderground v.1.15,2013-06-28 07:24:00,
2013-06-28 03:25:00,65.6,64.4,29.57,West,262,0.0,1.0,96,0.00,,,0.01,Wunderground v.1.15,2013-06-28 07:25:00,
2013-06-28 03:26:00,65.7,64.5,29.57,West,260,0.0,1.0,96,0.00,,,0.01,Wunderground v.1.15,2013-06-28 07:26:00,
2013-06-28 03:27:00,65.7,64.5,29.57,West,260,0.0,1.0,96,0.00,,,0.01,Wunderground v.1.15,2013-06-28 07:27:00,
2013-06-28 03:29:00,65.7,64.5,29.57,West,260,0.0,1.0,96,0.00,,,0.01,Wunderground v.1.15,2013-06-28 07:29:00,
2013-06-28 03:33:00,65.7,64.5,29.57,WSW,253,0.0,1.0,96,0.00,,,0.01,Wunderground v.1.15,2013-06-28 07:33:00,
2013-06-28 03:35:00,65.7,64.5,29.57,WSW,253,0.0,1.0,96,0.00,,,0.01,Wunderground v.1.15,2013-06-28 07:35:00,
2013-06-28 03:36:00,65.7,64.5,29.57,WSW,248,0.0,1.0,96,0.00,,,0.01,Wunderground v.1.15,2013-06-28 07:36:00,
2013-06-28 03:39:00,65.7,64.5,29.57,WSW,249,0.0,1.0,96,0.00,,,0.01,Wunderground v.1.15,2013-06-28 07:39:00,
2013-06-28 03:40:00,65.8,64.6,29.57,WSW,248,0.0,0.0,96,0.00,,,0.01,Wunderground v.1.15,2013-06-28 07:40:00,
2013-06-28 03:42:00,65.8,64.6,29.57,WSW,249,0.0,0.0,96,0.00,,,0.01,Wunderground v.1.15,2013-06-28 07:42:00,
2013-06-28 03:44:00,65.8,64.6,29.57,WSW,249,0.0,0.0,96,0.00,,,0.01,Wunderground v.1.15,2013-06-28 07:44:00,
2013-06-28 03:45:00,65.8,64.6,29.57,WSW,241,0.0,0.0,96,0.00,,,0.01,Wunderground v.1.15,2013-06-28 07:45:00,
2013-06-28 03:48:00,65.8,64.6,29.57,West,271,0.0,1.0,96,0.00,,,0.01,Wunderground v.1.15,2013-06-28 07:48:00,
2013-06-28 03:49:00,65.8,64.6,29.57,WSW,257,0.0,1.0,96,0.00,,,0.01,Wunderground v.1.15,2013-06-28 07:49:00,
2013-06-28 03:51:00,65.8,64.6,29.57,NW,307,0.0,1.0,96,0.00,,,0.01,Wunderground v.1.15,2013-06-28 07:51:00,
2013-06-28 03:52:00,65.8,64.6,29.57,NW,304,0.0,1.0,96,0.00,,,0.01,Wunderground v.1.15,2013-06-28 07:52:00,
2013-06-28 03:54:00,65.9,64.7,29.57,NW,305,0.0,1.0,96,0.00,,,0.01,Wunderground v.1.15,2013-06-28 07:54:00,
2013-06-28 03:56:00,65.9,64.7,29.57,WNW,284,0.0,1.0,96,0.00,,,0.01,Wunderground v.1.15,2013-06-28 07:56:00,
2013-06-28 03:58:00,65.9,64.7,29.57,WSW,247,0.0,1.0,96,0.00,,,0.01,Wunderground v.1.15,2013-06-28 07:58:00,
2013-06-28 04:01:00,65.9,64.7,29.57,WSW,242,0.0,0.0,96,0.00,,,0.01,Wunderground v.1.15,2013-06-28 08:01:00,
2013-06-28 04:04:00,65.9,64.7,29.57,SW,236,0.0,2.0,96,0.00,,,0.01,Wunderground v.1.15,2013-06-28 08:04:00,
2013-06-28 04:05:00,65.9,64.7,29.57,West,264,0.0,2.0,96,0.00,,,0.01,Wunderground v.1.15,2013-06-28 08:05:00,
2013-06-28 04:06:00,65.9,64.7,29.57,WSW,257,0.0,2.0,96,0.00,,,0.01,Wunderground v.1.15,2013-06-28 08:06:00,
2013-06-28 04:10:00,65.9,64.7,29.57,WSW,248,0.0,1.0,96,0.00,,,0.01,Wunderground v.1.15,2013-06-28 08:10:00,
2013-06-28 04:11:00,65.9,64.7,29.56,WSW,255,0.0,1.0,96,0.00,,,0.01,Wunderground v.1.15,2013-06-28 08:11:00,
2013-06-28 04:12:00,65.9,64.7,29.57,WSW,255,0.0,1.0,96,0.00,,,0.01,Wunderground v.1.15,2013-06-28 08:12:00,
2013-06-28 04:13:00,66.0,64.8,29.57,WSW,255,0.0,1.0,96,0.00,,,0.01,Wunderground v.1.15,2013-06-28 08:13:00,
2013-06-28 04:18:00,66.0,64.8,29.57,West,260,0.0,1.0,96,0.00,,,0.01,Wunderground v.1.15,2013-06-28 08:18:00,
2013-06-28 04:19:00,66.0,64.8,29.56,West,260,0.0,1.0,96,0.00,,,0.01,Wunderground v.1.15,2013-06-28 08:19:00,
2013-06-28 04:20:00,66.0,64.8,29.57,West,259,0.0,0.0,96,0.00,,,0.01,Wunderground v.1.15,2013-06-28 08:20:00,
2013-06-28 04:21:00,66.0,64.8,29.57,WSW,258,0.0,0.0,96,0.00,,,0.01,Wunderground v.1.15,2013-06-28 08:21:00,
2013-06-28 04:24:00,66.0,64.8,29.57,WSW,255,0.0,0.0,96,0.00,,,0.01,Wunderground v.1.15,2013-06-28 08:24:00,
2013-06-28 04:25:00,66.0,64.8,29.57,WSW,254,0.0,0.0,96,0.00,,,0.01,Wunderground v.1.15,2013-06-28 08:25:00,
2013-06-28 04:27:00,66.1,64.9,29.57,WSW,255,0.0,0.0,96,0.00,,,0.01,Wunderground v.1.15,2013-06-28 08:27:00,
2013-06-28 04:30:00,66.1,64.9,29.57,WSW,255,0.0,0.0,96,0.00,,,0.01,Wunderground v.1.15,2013-06-28 08:30:00,
2013-06-28 04:31:00,66.1,64.9,29.57,WSW,255,0.0,0.0,96,0.00,,,0.01,Wunderground v.1.15,2013-06-28 08:31:00,
2013-06-28 04:33:00,66.2,65.0,29.57,West,264,0.0,0.0,96,0.00,,,0.01,Wunderground v.1.15,2013-06-28 08:33:00,
2013-06-28 04:34:00,66.2,65.0,29.57,West,264,0.0,0.0,96,0.00,,,0.01,Wunderground v.1.15,2013-06-28 08:34:00,
2013-06-28 04:35:00,66.1,64.9,29.56,West,264,0.0,0.0,96,0.00,,,0.01,Wunderground v.1.15,2013-06-28 08:35:00,
2013-06-28 04:37:00,66.1,64.9,29.56,West,264,0.0,0.0,96,0.00,,,0.01,Wunderground v.1.15,2013-06-28 08:37:00,
2013-06-28 04:40:00,66.2,65.0,29.56,West,264,0.0,0.0,96,0.00,,,0.01,Wunderground v.1.15,2013-06-28 08:40:00,
2013-06-28 04:41:00,66.1,64.9,29.56,West,264,0.0,0.0,96,0.00,,,0.01,Wunderground v.1.15,2013-06-28 08:41:00,
2013-06-28 04:42:00,66.1,64.9,29.56,West,264,0.0,0.0,96,0.00,,,0.01,Wunderground v.1.15,2013-06-28 08:42:00,
2013-06-28 04:43:00,66.2,65.0,29.56,West,264,0.0,0.0,96,0.00,,,0.01,Wunderground v.1.15,2013-06-28 08:43:00,
2013-06-28 04:46:00,66.2,65.0,29.56,West,264,0.0,0.0,96,0.00,,,0.01,Wunderground v.1.15,2013-06-28 08:46:00,
2013-06-28 04:47:00,66.1,64.9,29.56,West,264,0.0,0.0,96,0.00,,,0.01,Wunderground v.1.15,2013-06-28 08:47:00,
2013-06-28 04:49:00,66.1,64.9,29.56,West,259,0.0,1.0,96,0.00,,,0.01,Wunderground v.1.15,2013-06-28 08:49:00,
2013-06-28 04:51:00,66.1,64.9,29.56,WSW,258,0.0,0.0,96,0.00,,,0.01,Wunderground v.1.15,2013-06-28 08:51:00,
2013-06-28 04:53:00,66.1,64.9,29.56,West,259,0.0,0.0,96,0.00,,,0.01,Wunderground v.1.15,2013-06-28 08:53:00,
2013-06-28 04:56:00,66.1,64.9,29.57,West,259,0.0,0.0,96,0.00,,,0.01,Wunderground v.1.15,2013-06-28 08:56:00,
2013-06-28 04:58:00,66.1,64.9,29.57,West,259,0.0,0.0,96,0.00,,,0.01,Wunderground v.1.15,2013-06-28 08:58:00,
2013-06-28 05:01:00,66.1,64.9,29.57,WSW,258,0.0,5.0,96,0.00,,,0.01,Wunderground v.1.15,2013-06-28 09:01:00,
2013-06-28 05:02:00,66.1,64.9,29.57,West,259,0.0,5.0,96,0.00,,,0.01,Wunderground v.1.15,2013-06-28 09:02:00,
2013-06-28 05:04:00,66.1,64.9,29.57,WSW,256,0.0,5.0,96,0.00,,,0.01,Wunderground v.1.15,2013-06-28 09:04:00,
2013-06-28 05:07:00,66.1,64.9,29.57,WSW,256,0.0,5.0,96,0.00,,,0.01,Wunderground v.1.15,2013-06-28 09:07:00,
2013-06-28 05:10:00,66.1,64.9,29.57,WSW,256,0.0,5.0,96,0.00,,,0.01,Wunderground v.1.15,2013-06-28 09:10:00,
2013-06-28 05:11:00,66.1,64.9,29.57,West,259,0.0,5.0,96,0.00,,,0.01,Wunderground v.1.15,2013-06-28 09:11:00,
2013-06-28 05:12:00,66.1,64.9,29.57,West,260,0.0,5.0,96,0.00,,,0.01,Wunderground v.1.15,2013-06-28 09:12:00,
2013-06-28 05:14:00,66.0,64.8,29.57,WSW,258,0.0,5.0,96,0.00,,,0.01,Wunderground v.1.15,2013-06-28 09:14:00,
2013-06-28 05:15:00,66.0,64.8,29.57,WSW,256,0.0,5.0,96,0.00,,,0.01,Wunderground v.1.15,2013-06-28 09:15:00,
2013-06-28 05:17:00,66.0,64.8,29.56,West,259,0.0,5.0,96,0.00,,,0.01,Wunderground v.1.15,2013-06-28 09:17:00,
2013-06-28 05:19:00,66.0,64.8,29.57,West,265,0.0,5.0,96,0.00,,,0.01,Wunderground v.1.15,2013-06-28 09:19:00,
2013-06-28 05:21:00,66.0,64.8,29.57,West,271,0.0,5.0,96,0.00,,,0.01,Wunderground v.1.15,2013-06-28 09:21:00,
2013-06-28 05:22:00,66.0,64.8,29.57,West,271,0.0,5.0,96,0.00,,,0.01,Wunderground v.1.15,2013-06-28 09:22:00,
2013-06-28 05:26:00,66.0,65.1,29.57,West,271,0.0,5.0,97,0.00,,,0.01,Wunderground v.1.15,2013-06-28 09:26:00,
2013-06-28 05:27:00,66.0,65.1,29.57,West,270,0.0,5.0,97,0.00,,,0.01,Wunderground v.1.15,2013-06-28 09:27:00,
2013-06-28 05:28:00,66.1,65.2,29.57,WSW,255,0.0,5.0,97,0.00,,,0.01,Wunderground v.1.15,2013-06-28 09:28:00,
2013-06-28 05:32:00,66.0,64.8,29.57,WSW,247,0.0,5.0,96,0.00,,,0.01,Wunderground v.1.15,2013-06-28 09:32:00,
2013-06-28 05:33:00,66.0,64.8,29.57,WSW,248,0.0,5.0,96,0.00,,,0.01,Wunderground v.1.15,2013-06-28 09:33:00,
2013-06-28 05:35:00,66.0,65.1,29.56,WSW,253,0.0,5.0,97,0.00,,,0.01,Wunderground v.1.15,2013-06-28 09:35:00,
2013-06-28 05:36:00,66.0,65.1,29.57,WSW,253,0.0,5.0,97,0.00,,,0.01,Wunderground v.1.15,2013-06-28 09:36:00,
2013-06-28 05:38:00,66.0,65.1,29.57,WSW,253,0.0,5.0,97,0.00,,,0.01,Wunderground v.1.15,2013-06-28 09:38:00,
2013-06-28 05:41:00,66.1,64.9,29.56,WSW,252,0.0,5.0,96,0.00,,,0.01,Wunderground v.1.15,2013-06-28 09:41:00,
2013-06-28 05:44:00,66.1,64.9,29.56,WSW,245,0.0,5.0,96,0.00,,,0.01,Wunderground v.1.15,2013-06-28 09:44:00,
2013-06-28 05:46:00,66.1,64.9,29.56,WSW,246,0.0,5.0,96,0.00,,,0.01,Wunderground v.1.15,2013-06-28 09:46:00,
2013-06-28 05:49:00,66.1,65.2,29.56,WSW,246,0.0,5.0,97,0.00,,,0.01,Wunderground v.1.15,2013-06-28 09:49:00,
2013-06-28 05:50:00,66.1,65.2,29.56,WSW,245,0.0,5.0,97,0.00,,,0.01,Wunderground v.1.15,2013-06-28 09:50:00,
2013-06-28 05:51:00,66.2,65.0,29.56,WSW,245,0.0,5.0,96,0.00,,,0.01,Wunderground v.1.15,2013-06-28 09:51:00,
2013-06-28 05:52:00,66.2,65.3,29.56,WSW,245,0.0,5.0,97,0.00,,,0.01,Wunderground v.1.15,2013-06-28 09:52:00,
2013-06-28 05:53:00,66.2,65.3,29.57,WSW,245,0.0,5.0,97,0.00,,,0.01,Wunderground v.1.15,2013-06-28 09:53:00,
2013-06-28 05:57:00,66.2,65.3,29.56,WSW,247,0.0,5.0,97,0.00,,,0.01,Wunderground v.1.15,2013-06-28 09:57:00,
2013-06-28 05:58:00,66.2,65.3,29.56,SW,229,0.0,5.0,97,0.00,,,0.01,Wunderground v.1.15,2013-06-28 09:58:00,
2013-06-28 05:59:00,66.2,65.3,29.56,SW,229,0.0,5.0,97,0.00,,,0.01,Wunderground v.1.15,2013-06-28 09:59:00,
2013-06-28 06:00:00,66.2,65.0,29.57,SW,229,0.0,5.0,96,0.00,,,0.01,Wunderground v.1.15,2013-06-28 10:00:00,
2013-06-28 06:03:00,66.3,65.1,29.57,SW,229,0.0,5.0,96,0.00,,,0.01,Wunderground v.1.15,2013-06-28 10:03:00,
2013-06-28 06:04:00,66.3,65.1,29.56,SW,229,0.0,5.0,96,0.00,,,0.01,Wunderground v.1.15,2013-06-28 10:04:00,
2013-06-28 06:05:00,66.2,65.0,29.56,SW,229,0.0,5.0,96,0.00,,,0.01,Wunderground v.1.15,2013-06-28 10:05:00,
2013-06-28 06:06:00,66.2,65.0,29.56,WSW,256,0.0,5.0,96,0.00,,,0.01,Wunderground v.1.15,2013-06-28 10:06:00,
2013-06-28 06:07:00,66.3,65.1,29.57,WSW,256,0.0,5.0,96,0.00,,,0.01,Wunderground v.1.15,2013-06-28 10:07:00,
2013-06-28 06:11:00,66.3,65.1,29.57,WSW,255,0.0,5.0,96,0.00,,,0.01,Wunderground v.1.15,2013-06-28 10:11:00,
2013-06-28 06:12:00,66.3,65.1,29.57,WSW,255,0.0,5.0,96,0.00,,,0.01,Wunderground v.1.15,2013-06-28 10:12:00,
2013-06-28 06:13:00,66.3,65.1,29.57,WSW,256,0.0,5.0,96,0.00,,,0.01,Wunderground v.1.15,2013-06-28 10:13:00,
2013-06-28 06:16:00,66.3,65.1,29.57,WSW,257,0.0,5.0,96,0.00,,,0.01,Wunderground v.1.15,2013-06-28 10:16:00,
2013-06-28 06:18:00,66.3,65.1,29.57,WSW,257,0.0,5.0,96,0.00,,,0.01,Wunderground v.1.15,2013-06-28 10:18:00,
2013-06-28 06:20:00,66.3,65.1,29.57,WSW,257,0.0,5.0,96,0.00,,,0.01,Wunderground v.1.15,2013-06-28 10:20:00,
2013-06-28 06:21:00,66.4,65.2,29.57,WSW,257,0.0,5.0,96,0.00,,,0.01,Wunderground v.1.15,2013-06-28 10:21:00,
2013-06-28 06:23:00,66.3,65.1,29.56,WSW,257,0.0,5.0,96,0.00,,,0.01,Wunderground v.1.15,2013-06-28 10:23:00,
2013-06-28 06:24:00,66.3,65.1,29.56,WSW,257,0.0,5.0,96,0.00,,,0.01,Wunderground v.1.15,2013-06-28 10:24:00,
2013-06-28 06:27:00,66.3,65.1,29.56,WSW,252,0.0,5.0,96,0.00,,,0.01,Wunderground v.1.15,2013-06-28 10:27:00,
2013-06-28 06:29:00,66.3,65.1,29.56,WSW,253,0.0,5.0,96,0.00,,,0.01,Wunderground v.1.15,2013-06-28 10:29:00,
2013-06-28 06:30:00,66.3,65.1,29.56,WSW,253,0.0,5.0,96,0.00,,,0.01,Wunderground v.1.15,2013-06-28 10:30:00,
2013-06-28 06:33:00,66.3,65.1,29.56,West,269,0.0,5.0,96,0.00,,,0.01,Wunderground v.1.15,2013-06-28 10:33:00,
2013-06-28 06:35:00,66.3,65.1,29.56,WSW,243,1.0,5.0,96,0.00,,,0.01,Wunderground v.1.15,2013-06-28 10:35:00,
2013-06-28 06:39:00,66.3,65.1,29.56,West,274,0.0,5.0,96,0.00,,,0.01,Wunderground v.1.15,2013-06-28 10:39:00,
2013-06-28 06:40:00,66.3,65.1,29.56,West,259,0.0,5.0,96,0.00,,,0.01,Wunderground v.1.15,2013-06-28 10:40:00,
2013-06-28 06:41:00,66.3,65.1,29.56,West,259,1.0,5.0,96,0.00,,,0.01,Wunderground v.1.15,2013-06-28 10:41:00,
2013-06-28 06:45:00,66.2,65.0,29.56,WSW,252,1.0,5.0,96,0.00,,,0.01,Wunderground v.1.15,2013-06-28 10:45:00,
2013-06-28 06:48:00,66.2,65.0,29.57,WSW,252,1.0,5.0,96,0.00,,,0.01,Wunderground v.1.15,2013-06-28 10:48:00,
2013-06-28 06:49:00,66.2,65.0,29.57,WSW,252,1.0,5.0,96,0.00,,,0.01,Wunderground v.1.15,2013-06-28 10:49:00,
2013-06-28 06:51:00,66.3,65.1,29.57,SW,235,1.0,5.0,96,0.00,,,0.01,Wunderground v.1.15,2013-06-28 10:51:00,
2013-06-28 06:56:00,66.3,65.1,29.57,WSW,252,0.0,5.0,96,0.00,,,0.01,Wunderground v.1.15,2013-06-28 10:56:00,
2013-06-28 06:57:00,66.3,65.1,29.57,WSW,252,0.0,5.0,96,0.00,,,0.01,Wunderground v.1.15,2013-06-28 10:57:00,
2013-06-28 07:00:00,66.3,65.1,29.57,WSW,252,0.0,5.0,96,0.00,,,0.01,Wunderground v.1.15,2013-06-28 11:00:00,
2013-06-28 07:02:00,66.4,65.2,29.57,WSW,245,0.0,5.0,96,0.00,,,0.01,Wunderground v.1.15,2013-06-28 11:02:00,
2013-06-28 07:03:00,66.4,65.2,29.57,WSW,246,0.0,5.0,96,0.00,,,0.01,Wunderground v.1.15,2013-06-28 11:03:00,
2013-06-28 07:05:00,66.4,65.2,29.57,WSW,245,0.0,5.0,96,0.00,,,0.01,Wunderground v.1.15,2013-06-28 11:05:00,
2013-06-28 07:08:00,66.4,65.2,29.57,WSW,256,0.0,5.0,96,0.00,,,0.01,Wunderground v.1.15,2013-06-28 11:08:00,
2013-06-28 07:10:00,66.4,65.2,29.57,SW,236,0.0,5.0,96,0.00,,,0.01,Wunderground v.1.15,2013-06-28 11:10:00,
2013-06-28 07:11:00,66.4,65.2,29.57,SW,236,0.0,5.0,96,0.00,,,0.01,Wunderground v.1.15,2013-06-28 11:11:00,
2013-06-28 07:15:00,66.4,65.2,29.57,West,259,0.0,5.0,96,0.00,,,0.01,Wunderground v.1.15,2013-06-28 11:15:00,
2013-06-28 07:16:00,66.4,65.2,29.57,West,259,0.0,5.0,96,0.00,,,0.01,Wunderground v.1.15,2013-06-28 11:16:00,
2013-06-28 07:17:00,66.4,65.2,29.57,WSW,258,0.0,5.0,96,0.00,,,0.01,Wunderground v.1.15,2013-06-28 11:17:00,
2013-06-28 07:21:00,66.4,65.2,29.57,WSW,246,0.0,5.0,96,0.00,,,0.02,Wunderground v.1.15,2013-06-28 11:21:00,
2013-06-28 07:22:00,66.4,65.2,29.57,WSW,246,0.0,5.0,96,0.00,,,0.02,Wunderground v.1.15,2013-06-28 11:22:00,
2013-06-28 07:23:00,66.4,65.2,29.57,WSW,245,0.0,5.0,96,0.00,,,0.02,Wunderground v.1.15,2013-06-28 11:23:00,
2013-06-28 07:28:00,66.4,65.2,29.57,WSW,245,1.0,5.0,96,0.11,,,0.03,Wunderground v.1.15,2013-06-28 11:28:00,
2013-06-28 07:29:00,66.5,65.6,29.57,WSW,256,1.0,5.0,97,0.11,,,0.03,Wunderground v.1.15,2013-06-28 11:29:00,
2013-06-28 07:30:00,66.5,65.6,29.56,WSW,253,0.0,5.0,97,0.11,,,0.03,Wunderground v.1.15,2013-06-28 11:30:00,
2013-06-28 07:32:00,66.4,65.5,29.56,WSW,252,0.0,5.0,97,0.12,,,0.04,Wunderground v.1.15,2013-06-28 11:32:00,
2013-06-28 07:35:00,66.5,65.6,29.56,West,264,0.0,5.0,97,0.12,,,0.04,Wunderground v.1.15,2013-06-28 11:35:00,
2013-06-28 07:36:00,66.5,65.6,29.56,West,263,0.0,5.0,97,0.11,,,0.04,Wunderground v.1.15,2013-06-28 11:36:00,
2013-06-28 07:37:00,66.5,65.6,29.56,West,270,0.0,5.0,97,0.09,,,0.04,Wunderground v.1.15,2013-06-28 11:37:00,
2013-06-28 07:38:00,66.5,65.6,29.56,West,264,0.0,5.0,97,0.08,,,0.04,Wunderground v.1.15,2013-06-28 11:38:00,
2013-06-28 07:41:00,66.5,65.6,29.56,West,268,0.0,5.0,97,0.06,,,0.04,Wunderground v.1.15,2013-06-28 11:41:00,
2013-06-28 07:42:00,66.5,65.6,29.56,West,268,0.0,5.0,97,0.05,,,0.04,Wunderground v.1.15,2013-06-28 11:42:00,
2013-06-28 07:45:00,66.5,65.6,29.56,West,268,0.0,5.0,97,0.04,,,0.04,Wunderground v.1.15,2013-06-28 11:45:00,
2013-06-28 07:46:00,66.6,65.7,29.56,WSW,250,0.0,5.0,97,0.04,,,0.04,Wunderground v.1.15,2013-06-28 11:46:00,
2013-06-28 07:49:00,66.6,65.7,29.56,WSW,253,0.0,5.0,97,0.00,,,0.04,Wunderground v.1.15,2013-06-28 11:49:00,
2013-06-28 07:50:00,66.6,65.7,29.56,WSW,253,0.0,5.0,97,0.00,,,0.04,Wunderground v.1.15,2013-06-28 11:50:00,
2013-06-28 07:52:00,66.6,65.7,29.56,West,280,0.0,5.0,97,0.00,,,0.04,Wunderground v.1.15,2013-06-28 11:52:00,
2013-06-28 07:54:00,66.6,65.7,29.56,West,280,0.0,5.0,97,0.00,,,0.04,Wunderground v.1.15,2013-06-28 11:54:00,
2013-06-28 07:55:00,66.6,65.7,29.56,West,280,0.0,5.0,97,0.00,,,0.05,Wunderground v.1.15,2013-06-28 11:55:00,
2013-06-28 07:56:00,66.6,65.7,29.56,West,278,0.0,5.0,97,0.00,,,0.05,Wunderground v.1.15,2013-06-28 11:56:00,
2013-06-28 07:57:00,66.6,65.7,29.57,West,278,0.0,5.0,97,0.00,,,0.05,Wunderground v.1.15,2013-06-28 11:57:00,
2013-06-28 08:02:00,66.6,65.7,29.56,SW,228,0.0,5.0,97,0.00,,,0.05,Wunderground v.1.15,2013-06-28 12:02:00,
2013-06-28 08:03:00,66.6,65.7,29.56,West,262,0.0,5.0,97,0.00,,,0.05,Wunderground v.1.15,2013-06-28 12:03:00,
2013-06-28 08:04:00,66.6,65.7,29.56,West,261,0.0,5.0,97,0.00,,,0.05,Wunderground v.1.15,2013-06-28 12:04:00,
2013-06-28 08:08:00,66.7,65.8,29.56,WSW,249,1.0,5.0,97,0.06,,,0.06,Wunderground v.1.15,2013-06-28 12:08:00,
2013-06-28 08:09:00,66.7,65.8,29.56,WSW,249,1.0,5.0,97,0.06,,,0.06,Wunderground v.1.15,2013-06-28 12:09:00,
2013-06-28 08:10:00,66.7,65.8,29.56,WSW,249,0.0,5.0,97,0.06,,,0.06,Wunderground v.1.15,2013-06-28 12:10:00,
2013-06-28 08:13:00,66.7,65.8,29.56,WSW,250,0.0,5.0,97,0.09,,,0.07,Wunderground v.1.15,2013-06-28 12:13:00,
2013-06-28 08:15:00,66.7,65.8,29.56,WSW,252,0.0,5.0,97,0.09,,,0.07,Wunderground v.1.15,2013-06-28 12:15:00,
2013-06-28 08:16:00,66.8,65.9,29.56,NNW,328,0.0,5.0,97,0.09,,,0.07,Wunderground v.1.15,2013-06-28 12:16:00,
2013-06-28 08:17:00,66.7,65.8,29.56,NNW,336,0.0,5.0,97,0.09,,,0.07,Wunderground v.1.15,2013-06-28 12:17:00,
2013-06-28 08:20:00,66.7,65.8,29.56,WNW,297,0.0,5.0,97,0.07,,,0.07,Wunderground v.1.15,2013-06-28 12:20:00,
2013-06-28 08:25:00,66.7,65.8,29.56,ESE,118,0.0,5.0,97,0.06,,,0.08,Wunderground v.1.15,2013-06-28 12:25:00,
2013-06-28 08:26:00,66.6,65.7,29.56,NNE,25,0.0,5.0,97,0.06,,,0.08,Wunderground v.1.15,2013-06-28 12:26:00,
2013-06-28 08:27:00,66.6,65.7,29.56,NNW,327,0.0,5.0,97,0.06,,,0.08,Wunderground v.1.15,2013-06-28 12:27:00,
2013-06-28 08:31:00,66.6,65.7,29.56,East,88,0.0,5.0,97,0.06,,,0.08,Wunderground v.1.15,2013-06-28 12:31:00,
2013-06-28 08:33:00,66.6,65.7,29.56,NNW,328,0.0,5.0,97,0.05,,,0.08,Wunderground v.1.15,2013-06-28 12:33:00,
2013-06-28 08:34:00,66.6,65.7,29.56,NNW,329,0.0,5.0,97,0.05,,,0.08,Wunderground v.1.15,2013-06-28 12:34:00,
2013-06-28 08:39:00,66.4,65.2,29.56,ESE,105,1.0,5.0,96,0.00,,,0.08,Wunderground v.1.15,2013-06-28 12:39:00,
2013-06-28 08:40:00,66.4,65.2,29.56,East,101,1.0,1.0,96,0.00,,,0.09,Wunderground v.1.15,2013-06-28 12:40:00,
2013-06-28 08:41:00,66.3,65.1,29.56,NNE,18,1.0,5.0,96,0.00,,,0.09,Wunderground v.1.15,2013-06-28 12:41:00,
2013-06-28 08:43:00,66.3,65.1,29.56,NE,47,1.0,5.0,96,0.00,,,0.09,Wunderground v.1.15,2013-06-28 12:43:00,
2013-06-28 08:45:00,66.2,65.3,29.56,ENE,69,1.0,5.0,97,0.11,,,0.10,Wunderground v.1.15,2013-06-28 12:45:00,
2013-06-28 08:47:00,66.2,65.3,29.56,ENE,58,1.0,5.0,97,0.11,,,0.10,Wunderground v.1.15,2013-06-28 12:47:00,
2013-06-28 08:48:00,66.1,64.9,29.56,ESE,120,0.0,5.0,96,0.11,,,0.10,Wunderground v.1.15,2013-06-28 12:48:00,
2013-06-28 08:52:00,65.9,64.7,29.56,ENE,59,1.0,5.0,96,0.15,,,0.11,Wunderground v.1.15,2013-06-28 12:52:00,
2013-06-28 08:55:00,65.8,64.6,29.56,NW,311,1.0,5.0,96,0.10,,,0.12,Wunderground v.1.15,2013-06-28 12:55:00,
2013-06-28 08:56:00,65.8,64.6,29.56,NW,307,1.0,5.0,96,0.10,,,0.12,Wunderground v.1.15,2013-06-28 12:56:00,
2013-06-28 08:59:00,65.8,64.9,29.56,ENE,75,1.0,5.0,97,0.10,,,0.12,Wunderground v.1.15,2013-06-28 12:59:00,
2013-06-28 09:01:00,65.7,64.5,29.56,East,96,1.0,5.0,96,0.09,,,0.12,Wunderground v.1.15,2013-06-28 13:01:00,
2013-06-28 09:04:00,65.8,64.9,29.56,ENE,77,1.0,5.0,97,0.06,,,0.12,Wunderground v.1.15,2013-06-28 13:04:00,
2013-06-28 09:06:00,65.7,64.5,29.56,NE,48,0.0,5.0,96,0.05,,,0.12,Wunderground v.1.15,2013-06-28 13:06:00,
2013-06-28 09:07:00,65.7,64.5,29.56,NW,307,1.0,5.0,96,0.05,,,0.12,Wunderground v.1.15,2013-06-28 13:07:00,
2013-06-28 09:08:00,65.7,64.8,29.56,NW,307,1.0,5.0,97,0.04,,,0.12,Wunderground v.1.15,2013-06-28 13:08:00,
2013-06-28 09:11:00,65.7,64.8,29.55,NW,316,1.0,5.0,97,0.04,,,0.12,Wunderground v.1.15,2013-06-28 13:11:00,
2013-06-28 09:13:00,65.7,64.8,29.55,NE,40,1.0,5.0,97,0.00,,,0.13,Wunderground v.1.15,2013-06-28 13:13:00,
2013-06-28 09:14:00,65.7,64.8,29.55,NE,34,1.0,5.0,97,0.00,,,0.13,Wunderground v.1.15,2013-06-28 13:14:00,
2013-06-28 09:15:00,65.7,64.8,29.55,NE,56,1.0,5.0,97,0.00,,,0.13,Wunderground v.1.15,2013-06-28 13:15:00,
2013-06-28 09:16:00,65.6,64.4,29.55,West,278,1.0,5.0,96,0.00,,,0.13,Wunderground v.1.15,2013-06-28 13:16:00,
2013-06-28 09:19:00,65.6,64.4,29.55,East,87,1.0,5.0,96,0.00,,,0.13,Wunderground v.1.15,2013-06-28 13:19:00,
2013-06-28 09:21:00,65.4,64.2,29.55,ENE,77,1.0,5.0,96,0.00,,,0.13,Wunderground v.1.15,2013-06-28 13:21:00,
2013-06-28 09:23:00,65.3,64.1,29.55,NE,56,1.0,5.0,96,0.00,,,0.13,Wunderground v.1.15,2013-06-28 13:23:00,
2013-06-28 09:24:00,65.3,64.1,29.55,East,86,2.0,5.0,96,0.00,,,0.13,Wunderground v.1.15,2013-06-28 13:24:00,
2013-06-28 09:27:00,65.2,64.0,29.55,SSE,148,2.0,5.0,96,0.00,,,0.13,Wunderground v.1.15,2013-06-28 13:27:00,
2013-06-28 09:28:00,65.2,64.0,29.55,WNW,293,2.0,5.0,96,0.00,,,0.13,Wunderground v.1.15,2013-06-28 13:28:00,
2013-06-28 09:30:00,65.1,63.9,29.55,ENE,71,2.0,2.0,96,0.00,,,0.13,Wunderground v.1.15,2013-06-28 13:30:00,
2013-06-28 09:31:00,65.1,63.9,29.55,ENE,63,1.0,5.0,96,0.00,,,0.13,Wunderground v.1.15,2013-06-28 13:31:00,
2013-06-28 09:32:00,65.1,63.9,29.55,East,80,1.0,5.0,96,0.00,,,0.13,Wunderground v.1.15,2013-06-28 13:32:00,
2013-06-28 09:37:00,65.0,63.8,29.55,NW,304,1.0,5.0,96,0.00,,,0.13,Wunderground v.1.15,2013-06-28 13:37:00,
2013-06-28 09:38:00,65.0,63.8,29.55,NW,304,1.0,5.0,96,0.00,,,0.13,Wunderground v.1.15,2013-06-28 13:38:00,
2013-06-28 09:39:00,65.0,63.8,29.55,WNW,300,1.0,5.0,96,0.00,,,0.13,Wunderground v.1.15,2013-06-28 13:39:00,
2013-06-28 09:40:00,65.1,63.9,29.55,SSW,196,1.0,5.0,96,0.00,,,0.13,Wunderground v.1.15,2013-06-28 13:40:00,
2013-06-28 09:41:00,65.0,63.8,29.55,ENE,77,1.0,5.0,96,0.00,,,0.13,Wunderground v.1.15,2013-06-28 13:41:00,
2013-06-28 09:45:00,65.0,63.8,29.55,ENE,73,1.0,5.0,96,0.00,,,0.13,Wunderground v.1.15,2013-06-28 13:45:00,
2013-06-28 09:46:00,64.9,63.7,29.55,ENE,68,1.0,5.0,96,0.00,,,0.13,Wunderground v.1.15,2013-06-28 13:46:00,
2013-06-28 09:47:00,64.9,63.7,29.55,ENE,68,1.0,5.0,96,0.00,,,0.13,Wunderground v.1.15,2013-06-28 13:47:00,
2013-06-28 09:48:00,64.9,63.7,29.55,NW,320,1.0,5.0,96,0.00,,,0.13,Wunderground v.1.15,2013-06-28 13:48:00,
2013-06-28 09:51:00,64.9,63.7,29.55,NNE,22,1.0,5.0,96,0.00,,,0.13,Wunderground v.1.15,2013-06-28 13:51:00,
2013-06-28 09:53:00,64.7,63.5,29.55,SE,141,1.0,5.0,96,0.00,,,0.13,Wunderground v.1.15,2013-06-28 13:53:00,
2013-06-28 09:54:00,64.6,63.4,29.55,ENE,76,1.0,5.0,96,0.00,,,0.13,Wunderground v.1.15,2013-06-28 13:54:00,
2013-06-28 09:55:00,64.6,63.4,29.55,ENE,58,1.0,5.0,96,0.00,,,0.13,Wunderground v.1.15,2013-06-28 13:55:00,
2013-06-28 09:58:00,64.5,63.3,29.55,NNE,14,2.0,5.0,96,0.00,,,0.13,Wunderground v.1.15,2013-06-28 13:58:00,
2013-06-28 09:59:00,64.5,63.3,29.55,NNE,14,2.0,5.0,96,0.00,,,0.13,Wunderground v.1.15,2013-06-28 13:59:00,
2013-06-28 10:00:00,64.5,63.3,29.55,ESE,111,2.0,2.0,96,0.00,,,0.13,Wunderground v.1.15,2013-06-28 14:00:00,
2013-06-28 10:02:00,64.4,63.2,29.55,ESE,107,2.0,5.0,96,0.00,,,0.13,Wunderground v.1.15,2013-06-28 14:02:00,
2013-06-28 10:06:00,64.5,63.3,29.55,NE,52,1.0,5.0,96,0.00,,,0.13,Wunderground v.1.15,2013-06-28 14:06:00,
2013-06-28 10:08:00,64.6,63.4,29.55,NNE,33,1.0,5.0,96,0.00,,,0.13,Wunderground v.1.15,2013-06-28 14:08:00,
2013-06-28 10:11:00,64.6,63.4,29.55,SE,124,1.0,5.0,96,0.00,,,0.13,Wunderground v.1.15,2013-06-28 14:11:00,
2013-06-28 10:12:00,64.6,63.4,29.55,SE,135,1.0,5.0,96,0.00,,,0.13,Wunderground v.1.15,2013-06-28 14:12:00,
2013-06-28 10:14:00,64.5,63.3,29.55,East,97,2.0,5.0,96,0.00,,,0.13,Wunderground v.1.15,2013-06-28 14:14:00,
2013-06-28 10:17:00,64.5,63.3,29.55,NE,48,2.0,5.0,96,0.00,,,0.14,Wunderground v.1.15,2013-06-28 14:17:00,
2013-06-28 10:20:00,64.5,63.3,29.55,NNE,17,3.0,3.0,96,0.00,,,0.14,Wunderground v.1.15,2013-06-28 14:20:00,
2013-06-28 10:23:00,64.5,63.3,29.55,East,97,2.0,5.0,96,0.00,,,0.14,Wunderground v.1.15,2013-06-28 14:23:00,
2013-06-28 10:24:00,64.5,63.3,29.55,East,101,2.0,5.0,96,0.00,,,0.14,Wunderground v.1.15,2013-06-28 14:24:00,
2013-06-28 10:26:00,64.5,63.3,29.55,SW,232,2.0,5.0,96,0.00,,,0.14,Wunderground v.1.15,2013-06-28 14:26:00,
2013-06-28 10:28:00,64.5,63.3,29.55,NE,39,2.0,6.0,96,0.00,,,0.14,Wunderground v.1.15,2013-06-28 14:28:00,
2013-06-28 10:29:00,64.5,63.3,29.55,East,89,2.0,6.0,96,0.00,,,0.14,Wunderground v.1.15,2013-06-28 14:29:00,
2013-06-28 10:30:00,64.5,63.3,29.55,NE,53,2.0,5.0,96,0.00,,,0.14,Wunderground v.1.15,2013-06-28 14:30:00,
2013-06-28 10:31:00,64.5,63.3,29.55,ENE,72,2.0,5.0,96,0.00,,,0.14,Wunderground v.1.15,2013-06-28 14:31:00,
2013-06-28 10:36:00,64.4,63.2,29.55,ENE,66,2.0,5.0,96,0.00,,,0.14,Wunderground v.1.15,2013-06-28 14:36:00,
2013-06-28 10:37:00,64.4,63.2,29.55,WNW,302,2.0,5.0,96,0.00,,,0.14,Wunderground v.1.15,2013-06-28 14:37:00,
2013-06-28 10:39:00,64.4,63.2,29.55,NE,49,2.0,5.0,96,0.00,,,0.14,Wunderground v.1.15,2013-06-28 14:39:00,
2013-06-28 10:41:00,64.4,63.2,29.55,NE,39,1.0,5.0,96,0.00,,,0.14,Wunderground v.1.15,2013-06-28 14:41:00,
2013-06-28 10:42:00,64.3,63.1,29.55,ENE,65,2.0,5.0,96,0.00,,,0.14,Wunderground v.1.15,2013-06-28 14:42:00,
2013-06-28 10:43:00,64.3,63.1,29.55,ESE,107,2.0,5.0,96,0.00,,,0.14,Wunderground v.1.15,2013-06-28 14:43:00,
2013-06-28 10:49:00,64.4,63.2,29.55,East,101,2.0,5.0,96,0.00,,,0.14,Wunderground v.1.15,2013-06-28 14:49:00,
2013-06-28 10:50:00,64.4,63.2,29.55,East,94,2.0,2.0,96,0.00,,,0.14,Wunderground v.1.15,2013-06-28 14:50:00,
2013-06-28 10:51:00,64.4,63.2,29.55,NE,39,2.0,5.0,96,0.00,,,0.14,Wunderground v.1.15,2013-06-28 14:51:00,
2013-06-28 10:52:00,64.4,63.2,29.55,East,97,2.0,5.0,96,0.00,,,0.14,Wunderground v.1.15,2013-06-28 14:52:00,
2013-06-28 10:53:00,64.4,63.2,29.55,ENE,73,1.0,5.0,96,0.00,,,0.14,Wunderground v.1.15,2013-06-28 14:53:00,
2013-06-28 10:56:00,64.3,63.1,29.55,ENE,73,2.0,5.0,96,0.00,,,0.14,Wunderground v.1.15,2013-06-28 14:56:00,
2013-06-28 10:57:00,64.4,63.2,29.55,ENE,70,2.0,5.0,96,0.00,,,0.14,Wunderground v.1.15,2013-06-28 14:57:00,
2013-06-28 10:58:00,64.3,63.1,29.55,East,82,1.0,5.0,96,0.00,,,0.14,Wunderground v.1.15,2013-06-28 14:58:00,
2013-06-28 11:02:00,64.3,63.1,29.55,ENE,57,2.0,5.0,96,0.00,,,0.14,Wunderground v.1.15,2013-06-28 15:02:00,
2013-06-28 11:04:00,64.3,63.1,29.55,NNE,18,2.0,5.0,96,0.00,,,0.14,Wunderground v.1.15,2013-06-28 15:04:00,
2013-06-28 11:06:00,64.4,63.2,29.55,ESE,116,2.0,5.0,96,0.00,,,0.14,Wunderground v.1.15,2013-06-28 15:06:00,
2013-06-28 11:08:00,64.3,63.1,29.55,ENE,64,2.0,5.0,96,0.00,,,0.14,Wunderground v.1.15,2013-06-28 15:08:00,
2013-06-28 11:09:00,64.3,63.1,29.55,ENE,60,2.0,5.0,96,0.00,,,0.14,Wunderground v.1.15,2013-06-28 15:09:00,
2013-06-28 11:10:00,64.2,62.7,29.54,NE,37,2.0,5.0,95,0.00,,,0.14,Wunderground v.1.15,2013-06-28 15:10:00,
2013-06-28 11:14:00,64.2,63.0,29.54,East,79,2.0,5.0,96,0.00,,,0.14,Wunderground v.1.15,2013-06-28 15:14:00,
2013-06-28 11:17:00,64.3,63.1,29.55,ESE,103,2.0,5.0,96,0.00,,,0.14,Wunderground v.1.15,2013-06-28 15:17:00,
2013-06-28 11:18:00,64.3,63.1,29.55,East,79,1.0,5.0,96,0.00,,,0.14,Wunderground v.1.15,2013-06-28 15:18:00,
2013-06-28 11:21:00,64.4,63.2,29.55,ENE,60,1.0,2.0,96,0.00,,,0.14,Wunderground v.1.15,2013-06-28 15:21:00,
2013-06-28 11:23:00,64.3,62.8,29.55,ENE,63,1.0,5.0,95,0.00,,,0.14,Wunderground v.1.15,2013-06-28 15:23:00,
2013-06-28 11:24:00,64.3,62.8,29.54,NE,41,1.0,5.0,95,0.00,,,0.14,Wunderground v.1.15,2013-06-28 15:24:00,
2013-06-28 11:27:00,64.3,63.1,29.54,ENE,73,1.0,5.0,96,0.00,,,0.14,Wunderground v.1.15,2013-06-28 15:27:00,
2013-06-28 11:30:00,64.3,63.1,29.54,ENE,59,2.0,2.0,96,0.00,,,0.14,Wunderground v.1.15,2013-06-28 15:30:00,
2013-06-28 11:31:00,64.3,63.1,29.54,SE,127,2.0,5.0,96,0.00,,,0.14,Wunderground v.1.15,2013-06-28 15:31:00,
2013-06-28 11:32:00,64.3,63.1,29.54,ENE,77,2.0,5.0,96,0.00,,,0.14,Wunderground v.1.15,2013-06-28 15:32:00,
2013-06-28 11:33:00,64.3,63.1,29.54,SE,125,2.0,5.0,96,0.00,,,0.14,Wunderground v.1.15,2013-06-28 15:33:00,
2013-06-28 11:36:00,64.2,63.0,29.54,ENE,68,2.0,6.0,96,0.00,,,0.14,Wunderground v.1.15,2013-06-28 15:36:00,
2013-06-28 11:38:00,64.1,62.6,29.54,ESE,122,2.0,6.0,95,0.00,,,0.14,Wunderground v.1.15,2013-06-28 15:38:00,
2013-06-28 11:39:00,64.0,62.5,29.54,East,93,2.0,6.0,95,0.00,,,0.14,Wunderground v.1.15,2013-06-28 15:39:00,
2013-06-28 11:42:00,64.0,62.5,29.55,ENE,62,3.0,5.0,95,0.00,,,0.14,Wunderground v.1.15,2013-06-28 15:42:00,
2013-06-28 11:44:00,64.1,62.9,29.55,NNW,332,3.0,5.0,96,0.00,,,0.14,Wunderground v.1.15,2013-06-28 15:44:00,
2013-06-28 11:45:00,64.0,62.8,29.54,SE,134,2.0,5.0,96,0.00,,,0.14,Wunderground v.1.15,2013-06-28 15:45:00,
2013-06-28 11:46:00,64.0,62.5,29.54,WSW,242,2.0,5.0,95,0.00,,,0.14,Wunderground v.1.15,2013-06-28 15:46:00,
2013-06-28 11:48:00,64.0,62.5,29.55,North,6,2.0,5.0,95,0.00,,,0.14,Wunderground v.1.15,2013-06-28 15:48:00,
2013-06-28 11:50:00,63.9,62.4,29.54,ESE,113,2.0,2.0,95,0.00,,,0.14,Wunderground v.1.15,2013-06-28 15:50:00,
2013-06-28 11:53:00,63.9,62.7,29.55,ENE,60,2.0,5.0,96,0.00,,,0.14,Wunderground v.1.15,2013-06-28 15:53:00,
2013-06-28 11:54:00,63.9,62.7,29.55,East,100,2.0,5.0,96,0.00,,,0.14,Wunderground v.1.15,2013-06-28 15:54:00,
2013-06-28 11:55:00,63.9,62.7,29.55,ENE,65,2.0,5.0,96,0.00,,,0.14,Wunderground v.1.15,2013-06-28 15:55:00,
2013-06-28 11:58:00,63.9,62.7,29.55,ENE,63,2.0,5.0,96,0.00,,,0.14,Wunderground v.1.15,2013-06-28 15:58:00,
2013-06-28 12:01:00,63.8,62.3,29.55,NE,46,2.0,5.0,95,0.00,,,0.14,Wunderground v.1.15,2013-06-28 16:01:00,
2013-06-28 12:02:00,63.8,62.6,29.55,SSE,155,2.0,5.0,96,0.00,,,0.14,Wunderground v.1.15,2013-06-28 16:02:00,
2013-06-28 12:06:00,63.7,62.5,29.55,NW,326,2.0,5.0,96,0.00,,,0.14,Wunderground v.1.15,2013-06-28 16:06:00,
2013-06-28 12:07:00,63.7,62.5,29.55,ESE,118,2.0,5.0,96,0.00,,,0.14,Wunderground v.1.15,2013-06-28 16:07:00,
2013-06-28 12:08:00,63.7,62.5,29.55,NW,311,2.0,5.0,96,0.00,,,0.14,Wunderground v.1.15,2013-06-28 16:08:00,
2013-06-28 12:09:00,63.7,62.5,29.55,NNW,330,2.0,5.0,96,0.00,,,0.14,Wunderground v.1.15,2013-06-28 16:09:00,
2013-06-28 12:10:00,63.7,62.2,29.55,NE,39,2.0,2.0,95,0.00,,,0.14,Wunderground v.1.15,2013-06-28 16:10:00,
2013-06-28 12:13:00,63.6,62.4,29.55,SE,129,1.0,5.0,96,0.00,,,0.14,Wunderground v.1.15,2013-06-28 16:13:00,
2013-06-28 12:14:00,63.6,62.1,29.55,ENE,72,2.0,5.0,95,0.00,,,0.14,Wunderground v.1.15,2013-06-28 16:14:00,
2013-06-28 12:16:00,63.6,62.4,29.55,NW,320,1.0,5.0,96,0.00,,,0.14,Wunderground v.1.15,2013-06-28 16:16:00,
2013-06-28 12:17:00,63.6,62.4,29.55,NE,39,1.0,5.0,96,0.00,,,0.14,Wunderground v.1.15,2013-06-28 16:17:00,
2013-06-28 12:20:00,63.6,62.4,29.55,East,101,1.0,5.0,96,0.00,,,0.14,Wunderground v.1.15,2013-06-28 16:20:00,
2013-06-28 12:22:00,63.6,62.1,29.55,ESE,122,2.0,5.0,95,0.00,,,0.14,Wunderground v.1.15,2013-06-28 16:22:00,
2013-06-28 12:23:00,63.6,62.1,29.55,ESE,121,2.0,5.0,95,0.00,,,0.14,Wunderground v.1.15,2013-06-28 16:23:00,
2013-06-28 12:25:00,63.5,62.0,29.55,East,86,2.0,5.0,95,0.00,,,0.14,Wunderground v.1.15,2013-06-28 16:25:00,
2013-06-28 12:27:00,63.6,62.4,29.55,East,94,2.0,5.0,96,0.00,,,0.14,Wunderground v.1.15,2013-06-28 16:27:00,
2013-06-28 12:28:00,63.6,62.4,29.55,East,87,2.0,5.0,96,0.00,,,0.14,Wunderground v.1.15,2013-06-28 16:28:00,
2013-06-28 12:30:00,63.6,62.4,29.54,East,81,2.0,5.0,96,0.00,,,0.14,Wunderground v.1.15,2013-06-28 16:30:00,
2013-06-28 12:32:00,63.6,62.1,29.55,NE,56,2.0,5.0,95,0.00,,,0.14,Wunderground v.1.15,2013-06-28 16:32:00,
2013-06-28 12:35:00,63.5,62.0,29.55,NE,47,2.0,5.0,95,0.00,,,0.14,Wunderground v.1.15,2013-06-28 16:35:00,
2013-06-28 12:37:00,63.5,62.0,29.55,ESE,112,2.0,5.0,95,0.00,,,0.14,Wunderground v.1.15,2013-06-28 16:37:00,
2013-06-28 12:43:00,63.7,62.5,29.55,NNE,27,1.0,5.0,96,0.00,,,0.14,Wunderground v.1.15,2013-06-28 16:43:00,
2013-06-28 12:44:00,63.7,62.2,29.55,NE,34,1.0,5.0,95,0.00,,,0.14,Wunderground v.1.15,2013-06-28 16:44:00,
2013-06-28 12:45:00,63.7,62.2,29.55,NNW,343,1.0,5.0,95,0.00,,,0.14,Wunderground v.1.15,2013-06-28 16:45:00,
2013-06-28 12:47:00,63.7,62.2,29.54,East,92,1.0,5.0,95,0.00,,,0.14,Wunderground v.1.15,2013-06-28 16:47:00,
2013-06-28 12:48:00,63.7,62.2,29.54,NNE,33,1.0,5.0,95,0.00,,,0.14,Wunderground v.1.15,2013-06-28 16:48:00,
2013-06-28 12:51:00,63.7,62.2,29.54,ESE,121,1.0,5.0,95,0.00,,,0.14,Wunderground v.1.15,2013-06-28 16:51:00,
2013-06-28 12:55:00,63.7,62.2,29.54,NE,52,2.0,5.0,95,0.00,,,0.14,Wunderground v.1.15,2013-06-28 16:55:00,
2013-06-28 12:56:00,63.7,62.2,29.54,NE,51,2.0,5.0,95,0.00,,,0.14,Wunderground v.1.15,2013-06-28 16:56:00,
2013-06-28 12:58:00,63.6,62.1,29.54,NNW,345,2.0,5.0,95,0.00,,,0.14,Wunderground v.1.15,2013-06-28 16:58:00,
2013-06-28 12:59:00,63.6,62.1,29.54,WSW,257,2.0,5.0,95,0.00,,,0.14,Wunderground v.1.15,2013-06-28 16:59:00,
2013-06-28 13:02:00,63.7,62.2,29.54,NW,316,2.0,5.0,95,0.00,,,0.14,Wunderground v.1.15,2013-06-28 17:02:00,
2013-06-28 13:05:00,63.7,62.2,29.54,ENE,60,2.0,5.0,95,0.00,,,0.14,Wunderground v.1.15,2013-06-28 17:05:00,
2013-06-28 13:07:00,63.7,62.2,29.54,NNE,32,2.0,5.0,95,0.00,,,0.14,Wunderground v.1.15,2013-06-28 17:07:00,
2013-06-28 13:08:00,63.7,62.2,29.54,East,83,2.0,5.0,95,0.00,,,0.14,Wunderground v.1.15,2013-06-28 17:08:00,
2013-06-28 13:09:00,63.7,62.2,29.54,ENE,71,2.0,5.0,95,0.00,,,0.14,Wunderground v.1.15,2013-06-28 17:09:00,
2013-06-28 13:11:00,63.7,62.2,29.54,ENE,72,2.0,5.0,95,0.00,,,0.14,Wunderground v.1.15,2013-06-28 17:11:00,
2013-06-28 13:13:00,63.8,62.3,29.54,NE,49,2.0,5.0,95,0.00,,,0.14,Wunderground v.1.15,2013-06-28 17:13:00,
2013-06-28 13:15:00,63.8,62.3,29.54,ESE,105,2.0,5.0,95,0.00,,,0.14,Wunderground v.1.15,2013-06-28 17:15:00,
2013-06-28 13:17:00,63.8,62.3,29.54,East,91,2.0,5.0,95,0.00,,,0.14,Wunderground v.1.15,2013-06-28 17:17:00,
2013-06-28 13:20:00,63.9,62.1,29.54,East,94,2.0,5.0,94,0.00,,,0.14,Wunderground v.1.15,2013-06-28 17:20:00,
2013-06-28 13:22:00,63.8,62.0,29.54,NE,43,2.0,5.0,94,0.00,,,0.14,Wunderground v.1.15,2013-06-28 17:22:00,
2013-06-28 13:23:00,63.8,62.0,29.54,SE,141,2.0,5.0,94,0.00,,,0.14,Wunderground v.1.15,2013-06-28 17:23:00,
2013-06-28 13:25:00,63.8,62.0,29.54,SE,134,2.0,5.0,94,0.00,,,0.14,Wunderground v.1.15,2013-06-28 17:25:00,
2013-06-28 13:27:00,63.8,62.0,29.54,ENE,72,2.0,5.0,94,0.00,,,0.14,Wunderground v.1.15,2013-06-28 17:27:00,
2013-06-28 13:29:00,63.8,62.0,29.54,East,91,2.0,5.0,94,0.00,,,0.14,Wunderground v.1.15,2013-06-28 17:29:00,
2013-06-28 13:32:00,63.9,62.1,29.54,NE,52,2.0,5.0,94,0.00,,,0.14,Wunderground v.1.15,2013-06-28 17:32:00,
2013-06-28 13:35:00,64.0,62.2,29.54,ESE,108,2.0,5.0,94,0.00,,,0.14,Wunderground v.1.15,2013-06-28 17:35:00,
2013-06-28 13:36:00,64.0,62.2,29.54,ESE,102,2.0,5.0,94,0.00,,,0.14,Wunderground v.1.15,2013-06-28 17:36:00,
2013-06-28 13:37:00,64.0,62.2,29.54,East,91,2.0,5.0,94,0.00,,,0.14,Wunderground v.1.15,2013-06-28 17:37:00,
2013-06-28 13:38:00,64.0,62.2,29.54,ESE,109,2.0,5.0,94,0.00,,,0.14,Wunderground v.1.15,2013-06-28 17:38:00,
2013-06-28 13:39:00,63.9,62.1,29.54,East,98,2.0,5.0,94,0.00,,,0.14,Wunderground v.1.15,2013-06-28 17:39:00,
2013-06-28 13:42:00,63.9,62.1,29.54,East,92,2.0,6.0,94,0.00,,,0.14,Wunderground v.1.15,2013-06-28 17:42:00,
2013-06-28 13:44:00,63.9,62.1,29.54,ESE,110,2.0,6.0,94,0.00,,,0.14,Wunderground v.1.15,2013-06-28 17:44:00,
2013-06-28 13:45:00,63.9,62.1,29.54,ENE,58,2.0,6.0,94,0.00,,,0.14,Wunderground v.1.15,2013-06-28 17:45:00,
2013-06-28 13:49:00,63.9,62.1,29.54,ESE,105,2.0,6.0,94,0.00,,,0.14,Wunderground v.1.15,2013-06-28 17:49:00,
2013-06-28 13:50:00,63.9,62.1,29.54,ENE,72,2.0,5.0,94,0.00,,,0.14,Wunderground v.1.15,2013-06-28 17:50:00,
2013-06-28 13:52:00,63.8,61.7,29.54,NE,42,3.0,6.0,93,0.00,,,0.14,Wunderground v.1.15,2013-06-28 17:52:00,
2013-06-28 13:53:00,63.8,61.7,29.54,East,82,3.0,6.0,93,0.00,,,0.14,Wunderground v.1.15,2013-06-28 17:53:00,
2013-06-28 13:55:00,63.8,62.0,29.54,NNE,25,3.0,6.0,94,0.00,,,0.14,Wunderground v.1.15,2013-06-28 17:55:00,
2013-06-28 13:58:00,63.7,61.6,29.54,East,89,3.0,6.0,93,0.00,,,0.14,Wunderground v.1.15,2013-06-28 17:58:00,
2013-06-28 13:59:00,63.8,61.7,29.54,NE,48,3.0,6.0,93,0.00,,,0.14,Wunderground v.1.15,2013-06-28 17:59:00,
2013-06-28 14:01:00,63.8,62.0,29.54,ESE,115,3.0,5.0,94,0.00,,,0.14,Wunderground v.1.15,2013-06-28 18:01:00,
2013-06-28 14:02:00,63.8,62.0,29.54,ESE,120,3.0,5.0,94,0.00,,,0.14,Wunderground v.1.15,2013-06-28 18:02:00,
2013-06-28 14:06:00,63.7,61.6,29.54,NE,45,2.0,5.0,93,0.00,,,0.14,Wunderground v.1.15,2013-06-28 18:06:00,
2013-06-28 14:08:00,63.7,61.6,29.54,ENE,58,2.0,5.0,93,0.00,,,0.14,Wunderground v.1.15,2013-06-28 18:08:00,
2013-06-28 14:09:00,63.7,61.9,29.54,NE,44,2.0,5.0,94,0.00,,,0.14,Wunderground v.1.15,2013-06-28 18:09:00,
2013-06-28 14:11:00,63.8,61.7,29.54,ESE,112,2.0,5.0,93,0.00,,,0.14,Wunderground v.1.15,2013-06-28 18:11:00,
2013-06-28 14:14:00,63.8,62.0,29.54,NW,314,1.0,5.0,94,0.00,,,0.14,Wunderground v.1.15,2013-06-28 18:14:00,
2013-06-28 14:15:00,63.8,62.0,29.54,East,93,1.0,5.0,94,0.00,,,0.14,Wunderground v.1.15,2013-06-28 18:15:00,
2013-06-28 14:19:00,63.7,61.6,29.54,East,79,2.0,5.0,93,0.00,,,0.14,Wunderground v.1.15,2013-06-28 18:19:00,
2013-06-28 14:22:00,63.7,61.6,29.54,East,97,1.0,5.0,93,0.00,,,0.14,Wunderground v.1.15,2013-06-28 18:22:00,
2013-06-28 14:25:00,63.7,61.6,29.54,SE,132,1.0,5.0,93,0.00,,,0.14,Wunderground v.1.15,2013-06-28 18:25:00,
2013-06-28 14:26:00,63.7,61.6,29.54,East,90,1.0,5.0,93,0.00,,,0.14,Wunderground v.1.15,2013-06-28 18:26:00,
2013-06-28 14:28:00,63.8,61.7,29.54,East,93,1.0,5.0,93,0.00,,,0.14,Wunderground v.1.15,2013-06-28 18:28:00,
2013-06-28 14:30:00,63.9,61.8,29.54,ESE,115,2.0,2.0,93,0.00,,,0.14,Wunderground v.1.15,2013-06-28 18:30:00,
2013-06-28 14:31:00,63.9,61.8,29.54,East,79,1.0,6.0,93,0.00,,,0.14,Wunderground v.1.15,2013-06-28 18:31:00,
2013-06-28 14:35:00,63.8,61.7,29.54,NE,44,2.0,6.0,93,0.00,,,0.14,Wunderground v.1.15,2013-06-28 18:35:00,
2013-06-28 14:36:00,63.8,61.7,29.54,ENE,67,2.0,6.0,93,0.00,,,0.14,Wunderground v.1.15,2013-06-28 18:36:00,
2013-06-28 14:38:00,63.8,61.7,29.54,East,97,2.0,6.0,93,0.00,,,0.14,Wunderground v.1.15,2013-06-28 18:38:00,
2013-06-28 14:40:00,63.9,61.8,29.54,NNE,22,2.0,2.0,93,0.00,,,0.14,Wunderground v.1.15,2013-06-28 18:40:00,
2013-06-28 14:41:00,63.9,61.8,29.54,East,90,2.0,5.0,93,0.00,,,0.14,Wunderground v.1.15,2013-06-28 18:41:00,
2013-06-28 14:43:00,63.9,61.8,29.54,NNE,23,1.0,5.0,93,0.00,,,0.14,Wunderground v.1.15,2013-06-28 18:43:00,
2013-06-28 14:44:00,63.8,61.7,29.54,ESE,111,1.0,5.0,93,0.00,,,0.14,Wunderground v.1.15,2013-06-28 18:44:00,
2013-06-28 14:45:00,63.8,61.7,29.54,East,89,1.0,5.0,93,0.00,,,0.14,Wunderground v.1.15,2013-06-28 18:45:00,
2013-06-28 14:46:00,63.8,61.7,29.54,ESE,103,1.0,5.0,93,0.00,,,0.14,Wunderground v.1.15,2013-06-28 18:46:00,
2013-06-28 14:49:00,63.8,61.7,29.54,NE,46,1.0,5.0,93,0.00,,,0.14,Wunderground v.1.15,2013-06-28 18:49:00,
2013-06-28 14:50:00,63.9,61.8,29.54,East,83,1.0,5.0,93,0.00,,,0.14,Wunderground v.1.15,2013-06-28 18:50:00,
2013-06-28 14:52:00,63.8,61.7,29.54,NW,304,1.0,5.0,93,0.00,,,0.14,Wunderground v.1.15,2013-06-28 18:52:00,
2013-06-28 14:53:00,63.8,61.7,29.54,SE,125,2.0,5.0,93,0.00,,,0.14,Wunderground v.1.15,2013-06-28 18:53:00,
2013-06-28 14:55:00,63.7,61.6,29.54,East,82,1.0,5.0,93,0.00,,,0.14,Wunderground v.1.15,2013-06-28 18:55:00,
2013-06-28 14:56:00,63.6,61.5,29.54,East,83,1.0,5.0,93,0.00,,,0.14,Wunderground v.1.15,2013-06-28 18:56:00,
2013-06-28 14:57:00,63.6,61.5,29.54,ENE,71,2.0,5.0,93,0.00,,,0.14,Wunderground v.1.15,2013-06-28 18:57:00,
2013-06-28 15:01:00,63.5,61.4,29.54,ENE,68,2.0,5.0,93,0.00,,,0.14,Wunderground v.1.15,2013-06-28 19:01:00,
2013-06-28 15:02:00,63.5,61.4,29.54,SSW,203,2.0,5.0,93,0.00,,,0.14,Wunderground v.1.15,2013-06-28 19:02:00,
2013-06-28 15:04:00,63.5,61.7,29.54,East,94,2.0,5.0,94,0.00,,,0.14,Wunderground v.1.15,2013-06-28 19:04:00,
2013-06-28 15:05:00,63.5,61.7,29.54,ENE,77,1.0,5.0,94,0.00,,,0.14,Wunderground v.1.15,2013-06-28 19:05:00,
2013-06-28 15:08:00,63.5,61.4,29.54,ENE,68,1.0,5.0,93,0.00,,,0.14,Wunderground v.1.15,2013-06-28 19:08:00,
2013-06-28 15:09:00,63.4,61.6,29.54,ESE,117,1.0,5.0,94,0.00,,,0.14,Wunderground v.1.15,2013-06-28 19:09:00,
2013-06-28 15:11:00,63.3,61.2,29.54,ESE,108,2.0,5.0,93,0.00,,,0.14,Wunderground v.1.15,2013-06-28 19:11:00,
2013-06-28 15:12:00,63.3,61.5,29.54,East,85,1.0,5.0,94,0.00,,,0.14,Wunderground v.1.15,2013-06-28 19:12:00,
2013-06-28 15:13:00,63.4,61.6,29.55,NE,37,1.0,5.0,94,0.00,,,0.14,Wunderground v.1.15,2013-06-28 19:13:00,
2013-06-28 15:18:00,63.3,61.5,29.55,SE,124,1.0,5.0,94,0.00,,,0.14,Wunderground v.1.15,2013-06-28 19:18:00,
2013-06-28 15:19:00,63.3,61.5,29.55,ESE,114,1.0,5.0,94,0.00,,,0.14,Wunderground v.1.15,2013-06-28 19:19:00,
2013-06-28 15:20:00,63.3,61.5,29.55,ESE,122,1.0,5.0,94,0.00,,,0.14,Wunderground v.1.15,2013-06-28 19:20:00,
2013-06-28 15:21:00,63.2,61.4,29.55,NW,319,1.0,5.0,94,0.00,,,0.14,Wunderground v.1.15,2013-06-28 19:21:00,
2013-06-28 15:26:00,63.1,61.3,29.55,NNE,33,1.0,5.0,94,0.23,,,0.16,Wunderground v.1.15,2013-06-28 19:26:00,
2013-06-28 15:27:00,63.1,61.3,29.55,SE,127,1.0,5.0,94,0.26,,,0.16,Wunderground v.1.15,2013-06-28 19:27:00,
2013-06-28 15:30:00,63.1,61.3,29.55,ESE,115,1.0,1.0,94,0.23,,,0.18,Wunderground v.1.15,2013-06-28 19:30:00,
2013-06-28 15:31:00,63.1,61.3,29.54,East,101,1.0,5.0,94,0.23,,,0.18,Wunderground v.1.15,2013-06-28 19:31:00,
2013-06-28 15:32:00,63.0,61.2,29.54,NE,51,1.0,5.0,94,0.23,,,0.18,Wunderground v.1.15,2013-06-28 19:32:00,
2013-06-28 15:35:00,63.0,61.5,29.54,East,89,1.0,5.0,95,0.22,,,0.19,Wunderground v.1.15,2013-06-28 19:35:00,
2013-06-28 15:36:00,63.0,61.5,29.54,ENE,70,1.0,5.0,95,0.17,,,0.19,Wunderground v.1.15,2013-06-28 19:36:00,
2013-06-28 15:39:00,63.0,61.5,29.54,East,87,1.0,5.0,95,0.16,,,0.20,Wunderground v.1.15,2013-06-28 19:39:00,
2013-06-28 15:40:00,62.9,61.4,29.54,East,101,1.0,5.0,95,0.16,,,0.20,Wunderground v.1.15,2013-06-28 19:40:00,
2013-06-28 15:41:00,62.9,61.4,29.54,NNE,25,1.0,5.0,95,0.14,,,0.21,Wunderground v.1.15,2013-06-28 19:41:00,
2013-06-28 15:43:00,62.9,61.4,29.54,East,94,1.0,5.0,95,0.14,,,0.21,Wunderground v.1.15,2013-06-28 19:43:00,
2013-06-28 15:45:00,62.8,61.3,29.54,East,93,2.0,5.0,95,0.14,,,0.22,Wunderground v.1.15,2013-06-28 19:45:00,
2013-06-28 15:46:00,62.8,61.3,29.54,ENE,66,2.0,5.0,95,0.14,,,0.22,Wunderground v.1.15,2013-06-28 19:46:00,
2013-06-28 15:50:00,62.8,61.3,29.54,NNW,331,2.0,2.0,95,0.22,,,0.23,Wunderground v.1.15,2013-06-28 19:50:00,
2013-06-28 15:51:00,62.9,61.4,29.54,East,83,2.0,5.0,95,0.22,,,0.24,Wunderground v.1.15,2013-06-28 19:51:00,
2013-06-28 15:52:00,62.9,61.4,29.53,NE,48,2.0,5.0,95,0.22,,,0.24,Wunderground v.1.15,2013-06-28 19:52:00,
2013-06-28 15:53:00,62.8,61.3,29.53,ENE,60,2.0,5.0,95,0.21,,,0.24,Wunderground v.1.15,2013-06-28 19:53:00,
2013-06-28 15:57:00,62.7,61.2,29.53,NW,313,2.0,5.0,95,0.20,,,0.26,Wunderground v.1.15,2013-06-28 19:57:00,
2013-06-28 15:58:00,62.7,61.2,29.53,East,92,2.0,5.0,95,0.20,,,0.26,Wunderground v.1.15,2013-06-28 19:58:00,
2013-06-28 16:01:00,62.6,61.1,29.53,NE,41,2.0,5.0,95,0.29,,,0.28,Wunderground v.1.15,2013-06-28 20:01:00,
2013-06-28 16:02:00,62.6,61.1,29.53,North,1,2.0,5.0,95,0.29,,,0.28,Wunderground v.1.15,2013-06-28 20:02:00,
2013-06-28 16:03:00,62.6,61.4,29.53,West,259,2.0,5.0,96,0.28,,,0.29,Wunderground v.1.15,2013-06-28 20:03:00,
2013-06-28 16:04:00,62.6,61.1,29.53,ENE,72,2.0,5.0,95,0.28,,,0.29,Wunderground v.1.15,2013-06-28 20:04:00,
2013-06-28 16:06:00,62.7,61.5,29.53,SE,125,1.0,5.0,96,0.24,,,0.30,Wunderground v.1.15,2013-06-28 20:06:00,
2013-06-28 16:08:00,62.6,61.1,29.53,East,79,1.0,5.0,95,0.26,,,0.31,Wunderground v.1.15,2013-06-28 20:08:00,
2013-06-28 16:13:00,62.6,61.4,29.53,NE,47,1.0,5.0,96,0.22,,,0.33,Wunderground v.1.15,2013-06-28 20:13:00,
2013-06-28 16:14:00,62.6,61.4,29.53,NE,41,1.0,5.0,96,0.22,,,0.33,Wunderground v.1.15,2013-06-28 20:14:00,
2013-06-28 16:15:00,62.6,61.4,29.53,North,6,1.0,5.0,96,0.22,,,0.33,Wunderground v.1.15,2013-06-28 20:15:00,
2013-06-28 16:18:00,62.7,61.5,29.53,East,97,1.0,5.0,96,0.12,,,0.33,Wunderground v.1.15,2013-06-28 20:18:00,
2013-06-28 16:19:00,62.7,61.5,29.53,East,79,1.0,5.0,96,0.11,,,0.34,Wunderground v.1.15,2013-06-28 20:19:00,
2013-06-28 16:22:00,62.7,61.5,29.53,NNE,31,1.0,5.0,96,0.11,,,0.34,Wunderground v.1.15,2013-06-28 20:22:00,
2013-06-28 16:23:00,62.8,61.6,29.53,NE,41,1.0,5.0,96,0.11,,,0.34,Wunderground v.1.15,2013-06-28 20:23:00,
2013-06-28 16:24:00,62.7,61.5,29.53,SE,124,1.0,5.0,96,0.10,,,0.34,Wunderground v.1.15,2013-06-28 20:24:00,
2013-06-28 16:27:00,62.8,61.6,29.53,East,96,1.0,5.0,96,0.07,,,0.34,Wunderground v.1.15,2013-06-28 20:27:00,
2013-06-28 16:29:00,62.9,61.7,29.53,ESE,117,1.0,5.0,96,0.06,,,0.35,Wunderground v.1.15,2013-06-28 20:29:00,
2013-06-28 16:32:00,63.1,61.9,29.53,NW,315,1.0,5.0,96,0.06,,,0.35,Wunderground v.1.15,2013-06-28 20:32:00,
2013-06-28 16:35:00,63.1,61.9,29.53,NNE,20,2.0,5.0,96,0.06,,,0.35,Wunderground v.1.15,2013-06-28 20:35:00,
2013-06-28 16:37:00,63.2,62.0,29.52,NE,55,2.0,5.0,96,0.06,,,0.35,Wunderground v.1.15,2013-06-28 20:37:00,
2013-06-28 16:38:00,63.2,62.0,29.52,NNE,22,1.0,5.0,96,0.06,,,0.35,Wunderground v.1.15,2013-06-28 20:38:00,
2013-06-28 16:40:00,63.3,62.1,29.52,ENE,58,2.0,2.0,96,0.05,,,0.35,Wunderground v.1.15,2013-06-28 20:40:00,
2013-06-28 16:44:00,63.7,62.5,29.53,ENE,78,1.0,5.0,96,0.04,,,0.36,Wunderground v.1.15,2013-06-28 20:44:00,
2013-06-28 16:47:00,63.8,62.6,29.53,NE,51,2.0,5.0,96,0.04,,,0.36,Wunderground v.1.15,2013-06-28 20:47:00,
2013-06-28 16:49:00,63.7,62.2,29.53,NE,53,2.0,5.0,95,0.04,,,0.36,Wunderground v.1.15,2013-06-28 20:49:00,
2013-06-28 16:50:00,63.6,62.1,29.53,NE,36,2.0,5.0,95,0.04,,,0.36,Wunderground v.1.15,2013-06-28 20:50:00,
2013-06-28 16:52:00,63.5,62.0,29.53,NE,47,2.0,5.0,95,0.04,,,0.36,Wunderground v.1.15,2013-06-28 20:52:00,
2013-06-28 16:53:00,63.5,62.0,29.53,ENE,70,3.0,5.0,95,0.04,,,0.36,Wunderground v.1.15,2013-06-28 20:53:00,
2013-06-28 16:56:00,63.5,62.0,29.53,ENE,63,3.0,5.0,95,0.04,,,0.36,Wunderground v.1.15,2013-06-28 20:56:00,
2013-06-28 16:58:00,63.5,62.0,29.53,East,86,2.0,6.0,95,0.04,,,0.36,Wunderground v.1.15,2013-06-28 20:58:00,
2013-06-28 16:59:00,63.5,62.0,29.53,NNE,25,2.0,6.0,95,0.04,,,0.36,Wunderground v.1.15,2013-06-28 20:59:00,
2013-06-28 17:01:00,63.3,61.8,29.53,SE,134,2.0,5.0,95,0.00,,,0.36,Wunderground v.1.15,2013-06-28 21:01:00,
2013-06-28 17:04:00,63.3,61.8,29.53,West,280,2.0,5.0,95,0.00,,,0.36,Wunderground v.1.15,2013-06-28 21:04:00,
2013-06-28 17:05:00,63.3,61.8,29.53,NNW,346,2.0,5.0,95,0.00,,,0.36,Wunderground v.1.15,2013-06-28 21:05:00,
2013-06-28 17:09:00,63.3,61.8,29.53,SE,132,1.0,5.0,95,0.00,,,0.36,Wunderground v.1.15,2013-06-28 21:09:00,
2013-06-28 17:10:00,63.3,61.8,29.53,North,355,1.0,1.0,95,0.00,,,0.36,Wunderground v.1.15,2013-06-28 21:10:00,
2013-06-28 17:12:00,63.3,61.8,29.53,East,87,1.0,5.0,95,0.00,,,0.36,Wunderground v.1.15,2013-06-28 21:12:00,
2013-06-28 17:14:00,63.2,61.7,29.53,East,84,2.0,5.0,95,0.00,,,0.36,Wunderground v.1.15,2013-06-28 21:14:00,
2013-06-28 17:16:00,63.1,61.6,29.53,SW,230,2.0,5.0,95,0.00,,,0.36,Wunderground v.1.15,2013-06-28 21:16:00,
2013-06-28 17:18:00,63.1,61.6,29.53,ESE,121,2.0,5.0,95,0.00,,,0.36,Wunderground v.1.15,2013-06-28 21:18:00,
2013-06-28 17:19:00,63.1,61.6,29.53,ENE,75,2.0,5.0,95,0.00,,,0.36,Wunderground v.1.15,2013-06-28 21:19:00,
2013-06-28 17:21:00,63.1,61.6,29.53,ESE,114,2.0,5.0,95,0.00,,,0.36,Wunderground v.1.15,2013-06-28 21:21:00,
2013-06-28 17:22:00,63.1,61.6,29.53,NNE,25,2.0,5.0,95,0.00,,,0.36,Wunderground v.1.15,2013-06-28 21:22:00,
2013-06-28 17:26:00,63.0,61.5,29.53,ESE,119,2.0,5.0,95,0.00,,,0.36,Wunderground v.1.15,2013-06-28 21:26:00,
2013-06-28 17:28:00,62.9,61.4,29.53,ENE,60,1.0,5.0,95,0.00,,,0.36,Wunderground v.1.15,2013-06-28 21:28:00,
2013-06-28 17:29:00,62.9,61.4,29.53,SE,140,1.0,5.0,95,0.00,,,0.36,Wunderground v.1.15,2013-06-28 21:29:00,
2013-06-28 17:31:00,62.7,61.2,29.52,SE,134,2.0,5.0,95,0.00,,,0.36,Wunderground v.1.15,2013-06-28 21:31:00,
2013-06-28 17:33:00,62.8,61.3,29.52,NNE,22,2.0,5.0,95,0.00,,,0.36,Wunderground v.1.15,2013-06-28 21:33:00,
2013-06-28 17:35:00,62.7,61.2,29.52,NE,54,2.0,5.0,95,0.00,,,0.36,Wunderground v.1.15,2013-06-28 21:35:00,
2013-06-28 17:36:00,62.7,61.2,29.52,ESE,118,2.0,5.0,95,0.00,,,0.36,Wunderground v.1.15,2013-06-28 21:36:00,
2013-06-28 17:39:00,62.6,61.1,29.53,NW,323,2.0,5.0,95,0.00,,,0.36,Wunderground v.1.15,2013-06-28 21:39:00,
2013-06-28 17:40:00,62.6,61.1,29.53,WNW,294,2.0,2.0,95,0.00,,,0.36,Wunderground v.1.15,2013-06-28 21:40:00,
2013-06-28 17:41:00,62.6,61.1,29.53,North,349,2.0,5.0,95,0.00,,,0.36,Wunderground v.1.15,2013-06-28 21:41:00,
2013-06-28 17:45:00,62.5,61.0,29.53,ESE,105,1.0,5.0,95,0.00,,,0.36,Wunderground v.1.15,2013-06-28 21:45:00,
2013-06-28 17:46:00,62.5,61.0,29.53,ENE,73,2.0,5.0,95,0.00,,,0.36,Wunderground v.1.15,2013-06-28 21:46:00,
2013-06-28 17:47:00,62.5,61.0,29.53,ENE,60,2.0,5.0,95,0.00,,,0.36,Wunderground v.1.15,2013-06-28 21:47:00,
2013-06-28 17:48:00,62.4,60.9,29.53,ENE,67,2.0,5.0,95,0.00,,,0.36,Wunderground v.1.15,2013-06-28 21:48:00,
2013-06-28 17:50:00,62.4,60.9,29.53,ENE,77,1.0,5.0,95,0.00,,,0.36,Wunderground v.1.15,2013-06-28 21:50:00,
2013-06-28 17:51:00,62.4,60.9,29.53,SE,145,2.0,5.0,95,0.00,,,0.36,Wunderground v.1.15,2013-06-28 21:51:00,
2013-06-28 17:54:00,62.3,60.8,29.53,ENE,72,2.0,5.0,95,0.00,,,0.36,Wunderground v.1.15,2013-06-28 21:54:00,
2013-06-28 17:56:00,62.3,60.8,29.53,East,95,2.0,5.0,95,0.00,,,0.36,Wunderground v.1.15,2013-06-28 21:56:00,
2013-06-28 17:58:00,62.2,60.8,29.53,NNE,20,3.0,5.0,95,0.00,,,0.36,Wunderground v.1.15,2013-06-28 21:58:00,
2013-06-28 17:59:00,62.2,60.8,29.53,East,87,3.0,5.0,95,0.00,,,0.36,Wunderground v.1.15,2013-06-28 21:59:00,
2013-06-28 18:00:00,62.2,60.8,29.53,ENE,62,3.0,5.0,95,0.00,,,0.36,Wunderground v.1.15,2013-06-28 22:00:00,
2013-06-28 18:03:00,62.1,60.7,29.53,East,84,3.0,5.0,95,0.00,,,0.36,Wunderground v.1.15,2013-06-28 22:03:00,
2013-06-28 18:07:00,62.0,60.6,29.53,East,90,3.0,5.0,95,0.00,,,0.36,Wunderground v.1.15,2013-06-28 22:07:00,
2013-06-28 18:08:00,62.1,60.7,29.53,ENE,70,3.0,5.0,95,0.00,,,0.36,Wunderground v.1.15,2013-06-28 22:08:00,
2013-06-28 18:10:00,62.0,60.6,29.53,ENE,75,3.0,3.0,95,0.00,,,0.36,Wunderground v.1.15,2013-06-28 22:10:00,
2013-06-28 18:12:00,62.0,60.6,29.53,ENE,75,3.0,5.0,95,0.00,,,0.36,Wunderground v.1.15,2013-06-28 22:12:00,
2013-06-28 18:15:00,62.0,60.6,29.53,East,97,3.0,5.0,95,0.00,,,0.36,Wunderground v.1.15,2013-06-28 22:15:00,
2013-06-28 18:16:00,62.0,60.6,29.53,East,96,2.0,5.0,95,0.00,,,0.36,Wunderground v.1.15,2013-06-28 22:16:00,
2013-06-28 18:18:00,62.0,60.6,29.54,ESE,105,2.0,5.0,95,0.00,,,0.36,Wunderground v.1.15,2013-06-28 22:18:00,
2013-06-28 18:22:00,62.0,60.6,29.54,East,91,1.0,5.0,95,0.00,,,0.36,Wunderground v.1.15,2013-06-28 22:22:00,
2013-06-28 18:24:00,62.1,60.7,29.54,East,93,1.0,5.0,95,0.00,,,0.36,Wunderground v.1.15,2013-06-28 22:24:00,
2013-06-28 18:25:00,62.1,60.7,29.54,West,278,1.0,5.0,95,0.00,,,0.36,Wunderground v.1.15,2013-06-28 22:25:00,
2013-06-28 18:28:00,62.0,60.6,29.54,ESE,114,1.0,5.0,95,0.00,,,0.36,Wunderground v.1.15,2013-06-28 22:28:00,
2013-06-28 18:29:00,62.0,60.6,29.54,ENE,68,1.0,5.0,95,0.00,,,0.36,Wunderground v.1.15,2013-06-28 22:29:00,
2013-06-28 18:31:00,62.0,60.6,29.54,ENE,75,1.0,5.0,95,0.00,,,0.36,Wunderground v.1.15,2013-06-28 22:31:00,
2013-06-28 18:32:00,62.0,60.6,29.54,NE,47,1.0,5.0,95,0.00,,,0.36,Wunderground v.1.15,2013-06-28 22:32:00,
2013-06-28 18:36:00,61.9,60.5,29.54,East,87,2.0,5.0,95,0.00,,,0.36,Wunderground v.1.15,2013-06-28 22:36:00,
2013-06-28 18:38:00,62.0,60.6,29.54,ENE,70,2.0,5.0,95,0.00,,,0.36,Wunderground v.1.15,2013-06-28 22:38:00,
2013-06-28 18:39:00,62.0,60.6,29.54,ESE,103,2.0,5.0,95,0.00,,,0.36,Wunderground v.1.15,2013-06-28 22:39:00,
2013-06-28 18:41:00,62.0,60.6,29.54,SE,135,1.0,5.0,95,0.00,,,0.36,Wunderground v.1.15,2013-06-28 22:41:00,
2013-06-28 18:43:00,62.0,60.6,29.54,ENE,60,2.0,5.0,95,0.00,,,0.36,Wunderground v.1.15,2013-06-28 22:43:00,
2013-06-28 18:45:00,62.0,60.6,29.54,ENE,65,1.0,5.0,95,0.00,,,0.36,Wunderground v.1.15,2013-06-28 22:45:00,
2013-06-28 18:46:00,62.0,60.6,29.54,East,91,1.0,5.0,95,0.00,,,0.36,Wunderground v.1.15,2013-06-28 22:46:00,
2013-06-28 18:51:00,62.0,60.6,29.54,East,95,1.0,5.0,95,0.00,,,0.36,Wunderground v.1.15,2013-06-28 22:51:00,
2013-06-28 18:52:00,62.0,60.6,29.54,ENE,75,1.0,5.0,95,0.00,,,0.36,Wunderground v.1.15,2013-06-28 22:52:00,
2013-06-28 18:54:00,62.0,60.6,29.54,East,82,1.0,5.0,95,0.00,,,0.36,Wunderground v.1.15,2013-06-28 22:54:00,
2013-06-28 18:55:00,62.0,60.6,29.54,ENE,60,1.0,5.0,95,0.00,,,0.37,Wunderground v.1.15,2013-06-28 22:55:00,
2013-06-28 18:58:00,61.9,60.5,29.53,NE,44,1.0,5.0,95,0.00,,,0.37,Wunderground v.1.15,2013-06-28 22:58:00,
2013-06-28 18:59:00,61.9,60.5,29.54,East,98,1.0,5.0,95,0.00,,,0.37,Wunderground v.1.15,2013-06-28 22:59:00,
2013-06-28 19:01:00,61.9,60.7,29.54,ENE,62,1.0,3.0,96,0.00,,,0.37,Wunderground v.1.15,2013-06-28 23:01:00,
2013-06-28 19:02:00,61.9,60.5,29.54,East,82,1.0,5.0,95,0.08,,,0.38,Wunderground v.1.15,2013-06-28 23:02:00,
2013-06-28 19:05:00,61.9,60.7,29.54,ENE,68,1.0,5.0,96,0.08,,,0.38,Wunderground v.1.15,2013-06-28 23:05:00,
2013-06-28 19:07:00,61.9,60.7,29.54,East,92,1.0,5.0,96,0.08,,,0.38,Wunderground v.1.15,2013-06-28 23:07:00,
2013-06-28 19:08:00,61.9,60.7,29.54,East,81,1.0,5.0,96,0.08,,,0.38,Wunderground v.1.15,2013-06-28 23:08:00,
2013-06-28 19:12:00,61.9,60.7,29.54,ESE,115,1.0,5.0,96,0.08,,,0.39,Wunderground v.1.15,2013-06-28 23:12:00,
2013-06-28 19:13:00,61.9,60.7,29.54,East,94,1.0,5.0,96,0.08,,,0.39,Wunderground v.1.15,2013-06-28 23:13:00,
2013-06-28 19:14:00,61.9,60.7,29.54,ESE,113,1.0,5.0,96,0.08,,,0.39,Wunderground v.1.15,2013-06-28 23:14:00,
2013-06-28 19:17:00,61.9,60.7,29.55,ESE,109,1.0,5.0,96,0.09,,,0.40,Wunderground v.1.15,2013-06-28 23:17:00,
2013-06-28 19:18:00,61.9,60.7,29.55,ESE,113,1.0,5.0,96,0.09,,,0.40,Wunderground v.1.15,2013-06-28 23:18:00,
2013-06-28 19:21:00,61.9,60.7,29.55,ESE,107,1.0,5.0,96,0.09,,,0.40,Wunderground v.1.15,2013-06-28 23:21:00,
2013-06-28 19:22:00,61.9,60.7,29.55,ESE,107,1.0,5.0,96,0.11,,,0.41,Wunderground v.1.15,2013-06-28 23:22:00,
2013-06-28 19:23:00,61.9,60.7,29.55,ESE,106,0.0,5.0,96,0.11,,,0.41,Wunderground v.1.15,2013-06-28 23:23:00,
2013-06-28 19:27:00,61.9,60.7,29.55,East,100,0.0,5.0,96,0.31,,,0.43,Wunderground v.1.15,2013-06-28 23:27:00,
2013-06-28 19:28:00,61.9,60.7,29.55,East,101,0.0,5.0,96,0.31,,,0.43,Wunderground v.1.15,2013-06-28 23:28:00,
2013-06-28 19:29:00,61.9,60.7,29.55,East,100,0.0,5.0,96,0.25,,,0.44,Wunderground v.1.15,2013-06-28 23:29:00,
2013-06-28 19:30:00,61.9,60.7,29.55,East,100,0.0,5.0,96,0.25,,,0.44,Wunderground v.1.15,2013-06-28 23:30:00,
2013-06-28 19:32:00,61.9,60.7,29.55,East,100,0.0,5.0,96,0.27,,,0.45,Wunderground v.1.15,2013-06-28 23:32:00,
2013-06-28 19:34:00,61.9,60.7,29.55,East,81,0.0,5.0,96,0.25,,,0.46,Wunderground v.1.15,2013-06-28 23:34:00,
2013-06-28 19:36:00,61.8,60.6,29.55,East,80,1.0,5.0,96,0.25,,,0.47,Wunderground v.1.15,2013-06-28 23:36:00,
2013-06-28 19:38:00,61.8,60.6,29.55,East,95,1.0,5.0,96,0.25,,,0.47,Wunderground v.1.15,2013-06-28 23:38:00,
2013-06-28 19:40:00,61.8,60.6,29.55,ESE,113,1.0,1.0,96,0.14,,,0.47,Wunderground v.1.15,2013-06-28 23:40:00,
2013-06-28 19:42:00,61.8,60.6,29.54,East,98,1.0,5.0,96,0.14,,,0.48,Wunderground v.1.15,2013-06-28 23:42:00,
2013-06-28 19:44:00,61.8,60.6,29.54,ENE,72,1.0,5.0,96,0.14,,,0.48,Wunderground v.1.15,2013-06-28 23:44:00,
2013-06-28 19:45:00,61.8,60.6,29.54,East,81,1.0,5.0,96,0.13,,,0.48,Wunderground v.1.15,2013-06-28 23:45:00,
2013-06-28 19:47:00,61.8,60.6,29.54,ESE,106,1.0,5.0,96,0.11,,,0.49,Wunderground v.1.15,2013-06-28 23:47:00,
2013-06-28 19:49:00,61.7,60.5,29.54,ESE,105,1.0,5.0,96,0.11,,,0.49,Wunderground v.1.15,2013-06-28 23:49:00,
2013-06-28 19:50:00,61.8,60.6,29.54,ESE,105,1.0,1.0,96,0.11,,,0.49,Wunderground v.1.15,2013-06-28 23:50:00,
2013-06-28 19:51:00,61.8,60.9,29.54,ESE,103,1.0,5.0,97,0.11,,,0.49,Wunderground v.1.15,2013-06-28 23:51:00,
2013-06-28 19:55:00,61.7,60.5,29.55,ESE,111,1.0,5.0,96,0.06,,,0.49,Wunderground v.1.15,2013-06-28 23:55:00,
2013-06-28 19:57:00,61.7,60.5,29.54,ESE,111,1.0,5.0,96,0.05,,,0.49,Wunderground v.1.15,2013-06-28 23:57:00,
2013-06-28 19:58:00,61.7,60.5,29.54,NNE,17,1.0,5.0,96,0.05,,,0.49,Wunderground v.1.15,2013-06-28 23:58:00,
2013-06-28 20:00:00,61.6,60.7,29.54,East,89,2.0,2.0,97,0.04,,,0.49,Wunderground v.1.15,2013-06-29 00:00:00,
2013-06-28 20:02:00,61.6,60.7,29.54,SE,125,2.0,5.0,97,0.04,,,0.49,Wunderground v.1.15,2013-06-29 00:02:00,
2013-06-28 20:05:00,61.6,60.7,29.55,East,89,2.0,5.0,97,0.00,,,0.49,Wunderground v.1.15,2013-06-29 00:05:00,
2013-06-28 20:07:00,61.6,60.7,29.55,East,95,1.0,5.0,97,0.00,,,0.50,Wunderground v.1.15,2013-06-29 00:07:00,
2013-06-28 20:08:00,61.6,60.7,29.55,East,80,1.0,5.0,97,0.00,,,0.50,Wunderground v.1.15,2013-06-29 00:08:00,
2013-06-28 20:09:00,61.6,60.7,29.55,ESE,103,1.0,5.0,97,0.00,,,0.50,Wunderground v.1.15,2013-06-29 00:09:00,
2013-06-28 20:13:00,61.6,60.7,29.55,North,349,1.0,5.0,97,0.09,,,0.51,Wunderground v.1.15,2013-06-29 00:13:00,
2013-06-28 20:14:00,61.6,60.7,29.55,NNE,25,1.0,5.0,97,0.09,,,0.51,Wunderground v.1.15,2013-06-29 00:14:00,
2013-06-28 20:15:00,61.6,60.7,29.54,SE,137,1.0,5.0,97,0.09,,,0.51,Wunderground v.1.15,2013-06-29 00:15:00,
2013-06-28 20:16:00,61.6,60.7,29.54,East,100,1.0,5.0,97,0.09,,,0.51,Wunderground v.1.15,2013-06-29 00:16:00,
2013-06-28 20:18:00,61.6,60.7,29.54,East,100,1.0,5.0,97,0.09,,,0.51,Wunderground v.1.15,2013-06-29 00:18:00,
2013-06-28 20:20:00,61.6,60.7,29.54,NE,41,1.0,5.0,97,0.08,,,0.51,Wunderground v.1.15,2013-06-29 00:20:00,
2013-06-28 20:24:00,61.6,60.7,29.54,East,100,1.0,5.0,97,0.07,,,0.52,Wunderground v.1.15,2013-06-29 00:24:00,
2013-06-28 20:25:00,61.6,60.7,29.54,ESE,113,1.0,5.0,97,0.07,,,0.52,Wunderground v.1.15,2013-06-29 00:25:00,
2013-06-28 20:27:00,61.6,60.7,29.54,ESE,113,1.0,5.0,97,0.07,,,0.52,Wunderground v.1.15,2013-06-29 00:27:00,
2013-06-28 20:28:00,61.6,60.7,29.54,ESE,113,1.0,5.0,97,0.07,,,0.52,Wunderground v.1.15,2013-06-29 00:28:00,
2013-06-28 20:30:00,61.6,60.7,29.55,SE,124,1.0,5.0,97,0.07,,,0.52,Wunderground v.1.15,2013-06-29 00:30:00,
2013-06-28 20:31:00,61.6,60.7,29.55,East,94,1.0,5.0,97,0.06,,,0.52,Wunderground v.1.15,2013-06-29 00:31:00,
2013-06-28 20:32:00,61.6,60.7,29.54,East,95,1.0,5.0,97,0.06,,,0.52,Wunderground v.1.15,2013-06-29 00:32:00,
2013-06-28 20:35:00,61.6,60.7,29.54,SE,133,1.0,5.0,97,0.04,,,0.52,Wunderground v.1.15,2013-06-29 00:35:00,
2013-06-28 20:36:00,61.6,60.7,29.55,South,172,1.0,5.0,97,0.04,,,0.52,Wunderground v.1.15,2013-06-29 00:36:00,
2013-06-28 20:38:00,61.6,60.7,29.54,South,172,1.0,5.0,97,0.04,,,0.52,Wunderground v.1.15,2013-06-29 00:38:00,
2013-06-28 20:39:00,61.6,60.7,29.54,South,170,1.0,5.0,97,0.00,,,0.52,Wunderground v.1.15,2013-06-29 00:39:00,
2013-06-28 20:40:00,61.6,60.7,29.55,South,169,0.0,5.0,97,0.00,,,0.52,Wunderground v.1.15,2013-06-29 00:40:00,
2013-06-28 20:42:00,61.6,60.7,29.54,South,170,0.0,5.0,97,0.00,,,0.52,Wunderground v.1.15,2013-06-29 00:42:00,
2013-06-28 20:44:00,61.5,60.6,29.54,SSW,194,0.0,5.0,97,0.00,,,0.52,Wunderground v.1.15,2013-06-29 00:44:00,
2013-06-28 20:46:00,61.5,60.6,29.54,SSE,155,0.0,5.0,97,0.00,,,0.52,Wunderground v.1.15,2013-06-29 00:46:00,
2013-06-28 20:48:00,61.5,60.6,29.54,SSE,155,0.0,5.0,97,0.00,,,0.52,Wunderground v.1.15,2013-06-29 00:48:00,
2013-06-28 20:51:00,61.5,60.6,29.54,ENE,73,0.0,5.0,97,0.00,,,0.52,Wunderground v.1.15,2013-06-29 00:51:00,
2013-06-28 20:52:00,61.5,60.6,29.54,ESE,105,0.0,5.0,97,0.00,,,0.52,Wunderground v.1.15,2013-06-29 00:52:00,
2013-06-28 20:53:00,61.5,60.6,29.54,SE,124,0.0,5.0,97,0.00,,,0.53,Wunderground v.1.15,2013-06-29 00:53:00,
2013-06-28 20:56:00,61.5,60.6,29.54,ESE,113,0.0,5.0,97,0.00,,,0.53,Wunderground v.1.15,2013-06-29 00:56:00,
2013-06-28 20:57:00,61.5,60.6,29.54,East,97,0.0,5.0,97,0.00,,,0.53,Wunderground v.1.15,2013-06-29 00:57:00,
2013-06-28 20:58:00,61.6,60.7,29.54,East,96,0.0,5.0,97,0.00,,,0.53,Wunderground v.1.15,2013-06-29 00:58:00,
2013-06-28 21:01:00,61.6,60.7,29.54,SSW,193,0.0,5.0,97,0.00,,,0.53,Wunderground v.1.15,2013-06-29 01:01:00,
2013-06-28 21:02:00,61.5,60.6,29.54,South,191,0.0,5.0,97,0.00,,,0.53,Wunderground v.1.15,2013-06-29 01:02:00,
2013-06-28 21:04:00,61.6,60.7,29.54,SSW,197,0.0,5.0,97,0.00,,,0.53,Wunderground v.1.15,2013-06-29 01:04:00,
2013-06-28 21:06:00,61.6,60.7,29.54,South,176,0.0,5.0,97,0.00,,,0.53,Wunderground v.1.15,2013-06-29 01:06:00,
2013-06-28 21:07:00,61.6,60.7,29.54,South,176,0.0,5.0,97,0.00,,,0.53,Wunderground v.1.15,2013-06-29 01:07:00,
2013-06-28 21:08:00,61.6,60.7,29.54,South,176,0.0,5.0,97,0.00,,,0.53,Wunderground v.1.15,2013-06-29 01:08:00,
2013-06-28 21:09:00,61.6,60.7,29.54,South,176,0.0,5.0,97,0.00,,,0.53,Wunderground v.1.15,2013-06-29 01:09:00,
2013-06-28 21:14:00,61.6,60.7,29.54,ESE,117,0.0,5.0,97,0.00,,,0.53,Wunderground v.1.15,2013-06-29 01:14:00,
2013-06-28 21:15:00,61.6,60.7,29.54,East,89,0.0,5.0,97,0.00,,,0.53,Wunderground v.1.15,2013-06-29 01:15:00,
2013-06-28 21:18:00,61.6,60.7,29.54,East,101,1.0,5.0,97,0.00,,,0.53,Wunderground v.1.15,2013-06-29 01:18:00,
2013-06-28 21:20:00,61.6,60.7,29.54,ESE,104,1.0,5.0,97,0.00,,,0.53,Wunderground v.1.15,2013-06-29 01:20:00,
2013-06-28 21:21:00,61.6,60.7,29.54,ESE,104,1.0,5.0,97,0.00,,,0.53,Wunderground v.1.15,2013-06-29 01:21:00,
2013-06-28 21:22:00,61.6,60.7,29.54,ENE,75,1.0,5.0,97,0.00,,,0.53,Wunderground v.1.15,2013-06-29 01:22:00,
2013-06-28 21:23:00,61.6,60.7,29.54,East,91,1.0,5.0,97,0.00,,,0.53,Wunderground v.1.15,2013-06-29 01:23:00,
2013-06-28 21:26:00,61.6,60.7,29.54,East,81,1.0,5.0,97,0.00,,,0.53,Wunderground v.1.15,2013-06-29 01:26:00,
2013-06-28 21:30:00,61.6,60.7,29.54,East,91,0.0,5.0,97,0.00,,,0.53,Wunderground v.1.15,2013-06-29 01:30:00,
2013-06-28 21:33:00,61.6,60.7,29.54,East,94,0.0,5.0,97,0.00,,,0.53,Wunderground v.1.15,2013-06-29 01:33:00,
2013-06-28 21:34:00,61.6,60.7,29.54,East,95,0.0,5.0,97,0.00,,,0.53,Wunderground v.1.15,2013-06-29 01:34:00,
2013-06-28 21:35:00,61.6,60.7,29.54,East,95,0.0,5.0,97,0.00,,,0.53,Wunderground v.1.15,2013-06-29 01:35:00,
2013-06-28 21:37:00,61.6,60.7,29.54,SE,131,0.0,5.0,97,0.00,,,0.53,Wunderground v.1.15,2013-06-29 01:37:00,
2013-06-28 21:42:00,61.6,60.7,29.54,East,98,0.0,5.0,97,0.00,,,0.53,Wunderground v.1.15,2013-06-29 01:42:00,
2013-06-28 21:45:00,61.6,60.7,29.55,East,98,0.0,5.0,97,0.00,,,0.53,Wunderground v.1.15,2013-06-29 01:45:00,
2013-06-28 21:46:00,61.6,60.7,29.55,East,98,0.0,5.0,97,0.00,,,0.53,Wunderground v.1.15,2013-06-29 01:46:00,
2013-06-28 21:48:00,61.6,60.7,29.55,East,98,0.0,5.0,97,0.00,,,0.53,Wunderground v.1.15,2013-06-29 01:48:00,
2013-06-28 21:52:00,61.6,60.7,29.55,East,98,0.0,5.0,97,0.00,,,0.53,Wunderground v.1.15,2013-06-29 01:52:00,
2013-06-28 21:53:00,61.6,60.7,29.55,East,98,0.0,5.0,97,0.00,,,0.53,Wunderground v.1.15,2013-06-29 01:53:00,
2013-06-28 21:55:00,61.6,60.7,29.55,East,100,0.0,5.0,97,0.00,,,0.53,Wunderground v.1.15,2013-06-29 01:55:00,
2013-06-28 21:58:00,61.6,60.7,29.55,East,100,0.0,5.0,97,0.00,,,0.53,Wunderground v.1.15,2013-06-29 01:58:00,
2013-06-28 21:59:00,61.6,60.7,29.55,East,101,0.0,5.0,97,0.00,,,0.53,Wunderground v.1.15,2013-06-29 01:59:00,
2013-06-28 22:00:00,61.6,60.7,29.55,East,100,0.0,5.0,97,0.00,,,0.53,Wunderground v.1.15,2013-06-29 02:00:00,
2013-06-28 22:01:00,61.6,60.7,29.55,East,101,0.0,5.0,97,0.00,,,0.53,Wunderground v.1.15,2013-06-29 02:01:00,
2013-06-28 22:03:00,61.6,60.7,29.55,East,100,0.0,5.0,97,0.00,,,0.53,Wunderground v.1.15,2013-06-29 02:03:00,
2013-06-28 22:04:00,61.6,60.7,29.55,East,100,0.0,5.0,97,0.00,,,0.53,Wunderground v.1.15,2013-06-29 02:04:00,
2013-06-28 22:05:00,61.6,60.7,29.55,East,100,0.0,5.0,97,0.00,,,0.53,Wunderground v.1.15,2013-06-29 02:05:00,
2013-06-28 22:07:00,61.6,60.7,29.55,East,100,0.0,5.0,97,0.00,,,0.53,Wunderground v.1.15,2013-06-29 02:07:00,
2013-06-28 22:11:00,61.6,60.7,29.55,East,101,0.0,5.0,97,0.00,,,0.53,Wunderground v.1.15,2013-06-29 02:11:00,
2013-06-28 22:13:00,61.6,60.7,29.55,East,100,0.0,5.0,97,0.00,,,0.53,Wunderground v.1.15,2013-06-29 02:13:00,
2013-06-28 22:14:00,61.6,60.7,29.55,East,100,0.0,5.0,97,0.00,,,0.53,Wunderground v.1.15,2013-06-29 02:14:00,
2013-06-28 22:15:00,61.6,60.7,29.55,East,100,0.0,5.0,97,0.00,,,0.53,Wunderground v.1.15,2013-06-29 02:15:00,
2013-06-28 22:18:00,61.6,60.7,29.55,East,101,0.0,5.0,97,0.00,,,0.53,Wunderground v.1.15,2013-06-29 02:18:00,
2013-06-28 22:21:00,61.7,60.8,29.55,East,100,0.0,5.0,97,0.00,,,0.53,Wunderground v.1.15,2013-06-29 02:21:00,
2013-06-28 22:22:00,61.7,60.8,29.55,East,101,0.0,5.0,97,0.00,,,0.53,Wunderground v.1.15,2013-06-29 02:22:00,
2013-06-28 22:23:00,61.7,60.8,29.55,East,100,0.0,5.0,97,0.00,,,0.53,Wunderground v.1.15,2013-06-29 02:23:00,
2013-06-28 22:24:00,61.7,60.8,29.55,East,100,0.0,5.0,97,0.00,,,0.53,Wunderground v.1.15,2013-06-29 02:24:00,
2013-06-28 22:29:00,61.7,60.8,29.55,East,100,0.0,5.0,97,0.00,,,0.53,Wunderground v.1.15,2013-06-29 02:29:00,
2013-06-28 22:30:00,61.7,60.8,29.55,East,100,0.0,5.0,97,0.00,,,0.53,Wunderground v.1.15,2013-06-29 02:30:00,
2013-06-28 22:32:00,61.7,60.8,29.55,East,100,0.0,5.0,97,0.00,,,0.53,Wunderground v.1.15,2013-06-29 02:32:00,
2013-06-28 22:36:00,61.8,60.9,29.55,East,100,0.0,5.0,97,0.00,,,0.53,Wunderground v.1.15,2013-06-29 02:36:00,
2013-06-28 22:37:00,61.8,60.9,29.56,East,100,0.0,5.0,97,0.00,,,0.53,Wunderground v.1.15,2013-06-29 02:37:00,
2013-06-28 22:38:00,61.8,60.9,29.55,East,101,0.0,5.0,97,0.00,,,0.53,Wunderground v.1.15,2013-06-29 02:38:00,
2013-06-28 22:43:00,61.8,60.9,29.55,East,101,0.0,5.0,97,0.00,,,0.53,Wunderground v.1.15,2013-06-29 02:43:00,
2013-06-28 22:45:00,61.8,60.9,29.55,East,100,0.0,5.0,97,0.00,,,0.53,Wunderground v.1.15,2013-06-29 02:45:00,
2013-06-28 22:46:00,61.8,60.9,29.55,East,100,0.0,5.0,97,0.00,,,0.54,Wunderground v.1.15,2013-06-29 02:46:00,
2013-06-28 22:48:00,61.8,60.9,29.55,East,100,0.0,5.0,97,0.00,,,0.54,Wunderground v.1.15,2013-06-29 02:48:00,
2013-06-28 22:51:00,61.8,60.9,29.55,East,100,0.0,5.0,97,0.00,,,0.54,Wunderground v.1.15,2013-06-29 02:51:00,
2013-06-28 22:52:00,61.9,61.0,29.55,East,100,0.0,5.0,97,0.00,,,0.54,Wunderground v.1.15,2013-06-29 02:52:00,
2013-06-28 22:53:00,61.9,61.0,29.55,East,100,0.0,5.0,97,0.00,,,0.54,Wunderground v.1.15,2013-06-29 02:53:00,
2013-06-28 22:55:00,61.9,61.0,29.55,East,100,0.0,5.0,97,0.00,,,0.54,Wunderground v.1.15,2013-06-29 02:55:00,
2013-06-28 22:56:00,61.9,61.0,29.55,East,100,0.0,5.0,97,0.00,,,0.54,Wunderground v.1.15,2013-06-29 02:56:00,
2013-06-28 22:58:00,61.9,61.0,29.55,East,100,0.0,5.0,97,0.00,,,0.54,Wunderground v.1.15,2013-06-29 02:58:00,
2013-06-28 23:00:00,61.9,61.0,29.55,East,101,0.0,5.0,97,0.00,,,0.54,Wunderground v.1.15,2013-06-29 03:00:00,
2013-06-28 23:02:00,61.8,60.9,29.55,East,100,0.0,5.0,97,0.00,,,0.54,Wunderground v.1.15,2013-06-29 03:02:00,
2013-06-28 23:04:00,61.9,61.0,29.55,East,100,0.0,5.0,97,0.00,,,0.54,Wunderground v.1.15,2013-06-29 03:04:00,
2013-06-28 23:05:00,61.9,61.0,29.55,East,100,0.0,5.0,97,0.00,,,0.54,Wunderground v.1.15,2013-06-29 03:05:00,
2013-06-28 23:06:00,61.9,61.0,29.55,East,100,0.0,5.0,97,0.00,,,0.54,Wunderground v.1.15,2013-06-29 03:06:00,
2013-06-28 23:09:00,61.9,61.0,29.55,East,100,0.0,5.0,97,0.00,,,0.54,Wunderground v.1.15,2013-06-29 03:09:00,
2013-06-28 23:12:00,61.9,61.0,29.55,East,100,0.0,5.0,97,0.00,,,0.54,Wunderground v.1.15,2013-06-29 03:12:00,
2013-06-28 23:13:00,61.9,61.0,29.55,East,100,0.0,5.0,97,0.00,,,0.54,Wunderground v.1.15,2013-06-29 03:13:00,
2013-06-28 23:16:00,61.9,61.0,29.55,East,100,0.0,5.0,97,0.00,,,0.54,Wunderground v.1.15,2013-06-29 03:16:00,
2013-06-28 23:17:00,61.9,61.0,29.55,East,100,0.0,5.0,97,0.00,,,0.54,Wunderground v.1.15,2013-06-29 03:17:00,
2013-06-28 23:18:00,61.9,61.0,29.55,East,100,0.0,5.0,97,0.00,,,0.54,Wunderground v.1.15,2013-06-29 03:18:00,
2013-06-28 23:22:00,61.8,60.9,29.55,East,100,0.0,5.0,97,0.00,,,0.54,Wunderground v.1.15,2013-06-29 03:22:00,
2013-06-28 23:23:00,61.8,60.9,29.55,East,100,0.0,5.0,97,0.00,,,0.54,Wunderground v.1.15,2013-06-29 03:23:00,
2013-06-28 23:24:00,61.8,60.9,29.55,East,100,0.0,5.0,97,0.00,,,0.54,Wunderground v.1.15,2013-06-29 03:24:00,
2013-06-28 23:26:00,61.8,60.9,29.55,East,100,0.0,5.0,97,0.00,,,0.54,Wunderground v.1.15,2013-06-29 03:26:00,
2013-06-28 23:29:00,61.9,61.0,29.55,East,101,0.0,5.0,97,0.00,,,0.54,Wunderground v.1.15,2013-06-29 03:29:00,
2013-06-28 23:30:00,61.8,60.9,29.55,East,100,0.0,5.0,97,0.00,,,0.54,Wunderground v.1.15,2013-06-29 03:30:00,
2013-06-28 23:33:00,61.9,61.0,29.55,East,100,0.0,5.0,97,0.00,,,0.54,Wunderground v.1.15,2013-06-29 03:33:00,
2013-06-28 23:35:00,61.8,60.9,29.55,East,100,0.0,5.0,97,0.00,,,0.54,Wunderground v.1.15,2013-06-29 03:35:00,
2013-06-28 23:36:00,61.9,61.0,29.55,East,100,0.0,5.0,97,0.00,,,0.54,Wunderground v.1.15,2013-06-29 03:36:00,
2013-06-28 23:41:00,61.8,60.9,29.56,East,100,0.0,5.0,97,0.00,,,0.54,Wunderground v.1.15,2013-06-29 03:41:00,
2013-06-28 23:42:00,61.8,60.9,29.56,East,101,0.0,5.0,97,0.00,,,0.54,Wunderground v.1.15,2013-06-29 03:42:00,
2013-06-28 23:44:00,61.8,60.9,29.56,East,100,0.0,5.0,97,0.00,,,0.54,Wunderground v.1.15,2013-06-29 03:44:00,
2013-06-28 23:48:00,61.8,60.9,29.55,East,100,0.0,5.0,97,0.00,,,0.54,Wunderground v.1.15,2013-06-29 03:48:00,
2013-06-28 23:49:00,61.8,60.9,29.55,East,100,0.0,5.0,97,0.00,,,0.54,Wunderground v.1.15,2013-06-29 03:49:00,
2013-06-28 23:51:00,61.9,61.0,29.55,East,100,0.0,5.0,97,0.00,,,0.54,Wunderground v.1.15,2013-06-29 03:51:00,
2013-06-28 23:54:00,61.9,61.0,29.55,East,100,0.0,5.0,97,0.00,,,0.55,Wunderground v.1.15,2013-06-29 03:54:00,
2013-06-28 23:55:00,61.9,61.0,29.55,East,100,0.0,5.0,97,0.00,,,0.55,Wunderground v.1.15,2013-06-29 03:55:00,
2013-06-28 23:57:00,61.9,61.0,29.55,East,100,0.0,5.0,97,0.00,,,0.55,Wunderground v.1.15,2013-06-29 03:57:00,
2013-06-28 23:58:00,61.9,61.0,29.55,East,86,0.0,5.0,97,0.00,,,0.55,Wunderground v.1.15,2013-06-29 03:58:00,